Wetterdaten: Sonntag, 19.04.2026
Datum Zeit Temp. Aussen Temp. o. S. Temp +5cm Feuchte Auss Luftdruck Regen Sonnenschein Solar Windböen Empfang
19.04.2026 00:00 13,2 °C 12,2 °C 8,9 °C 93 % 1020,4 hPa 0,0 l/m² 0 min 0 W/m² 12,9 km/h (3 Bft) 97,87 %
19.04.2026 00:02 13,2 °C 12,2 °C 8,3 °C 93 % 1020,3 hPa 0,0 l/m² 0 min 0 W/m² 19,3 km/h (3 Bft) 100,00 %
19.04.2026 00:04 13,2 °C 12,2 °C 8,3 °C 93 % 1020,3 hPa 0,0 l/m² 0 min 0 W/m² 25,7 km/h (4 Bft) 100,00 %
19.04.2026 00:07 13,1 °C 12,2 °C 8,3 °C 93 % 1020,3 hPa 0,0 l/m² 0 min 0 W/m² 22,5 km/h (4 Bft) 100,00 %
19.04.2026 00:08 13,0 °C 12,2 °C 8,3 °C 93 % 1020,3 hPa 0,0 l/m² 0 min 0 W/m² 19,3 km/h (3 Bft) 100,00 %
19.04.2026 00:14 12,7 °C 11,7 °C 8,3 °C 93 % 1020,4 hPa 0,0 l/m² 0 min 0 W/m² 19,3 km/h (3 Bft) 97,85 %
19.04.2026 00:16 12,6 °C 11,7 °C 8,3 °C 93 % 1020,4 hPa 0,0 l/m² 0 min 0 W/m² 16,1 km/h (3 Bft) 97,37 %
19.04.2026 00:18 12,6 °C 11,7 °C 8,3 °C 92 % 1020,5 hPa 0,0 l/m² 0 min 0 W/m² 12,9 km/h (3 Bft) 100,00 %
19.04.2026 00:20 12,4 °C 11,7 °C 8,3 °C 92 % 1020,5 hPa 0,0 l/m² 0 min 0 W/m² 19,3 km/h (3 Bft) 97,87 %
19.04.2026 00:22 12,4 °C 11,7 °C 8,3 °C 92 % 1020,5 hPa 0,0 l/m² 0 min 0 W/m² 6,4 km/h (2 Bft) 95,74 %
19.04.2026 00:24 12,3 °C 11,7 °C 8,3 °C 92 % 1020,5 hPa 0,0 l/m² 0 min 0 W/m² 9,7 km/h (2 Bft) 98,00 %
19.04.2026 00:26 12,3 °C 11,7 °C 8,3 °C 92 % 1020,4 hPa 0,0 l/m² 0 min 0 W/m² 25,7 km/h (4 Bft) 93,62 %
19.04.2026 00:28 12,2 °C 11,7 °C 8,3 °C 92 % 1020,5 hPa 0,0 l/m² 0 min 0 W/m² 19,3 km/h (3 Bft) 95,74 %
19.04.2026 00:30 12,2 °C 11,7 °C 8,3 °C 92 % 1020,5 hPa 0,0 l/m² 0 min 0 W/m² 16,1 km/h (3 Bft) 93,48 %
19.04.2026 00:32 12,2 °C 11,7 °C 8,3 °C 92 % 1020,5 hPa 0,0 l/m² 0 min 0 W/m² 12,9 km/h (3 Bft) 97,87 %
19.04.2026 00:34 12,2 °C 11,7 °C 8,3 °C 92 % 1020,5 hPa 0,0 l/m² 0 min 0 W/m² 16,1 km/h (3 Bft) 95,74 %
19.04.2026 00:36 12,2 °C 11,7 °C 8,3 °C 92 % 1020,5 hPa 0,0 l/m² 0 min 0 W/m² 9,7 km/h (2 Bft) 97,62 %
19.04.2026 00:38 12,1 °C 11,7 °C 7,8 °C 92 % 1020,5 hPa 0,0 l/m² 0 min 0 W/m² 19,3 km/h (3 Bft) 97,78 %
19.04.2026 00:40 12,1 °C 11,7 °C 7,8 °C 92 % 1020,5 hPa 0,0 l/m² 0 min 0 W/m² 25,7 km/h (4 Bft) 95,74 %
19.04.2026 00:42 12,1 °C 11,7 °C 7,8 °C 92 % 1020,5 hPa 0,0 l/m² 0 min 0 W/m² 12,9 km/h (3 Bft) 95,74 %
19.04.2026 00:44 12,1 °C 11,7 °C 7,8 °C 92 % 1020,5 hPa 0,0 l/m² 0 min 0 W/m² 9,7 km/h (2 Bft) 95,74 %
19.04.2026 00:46 12,0 °C 11,7 °C 7,8 °C 92 % 1020,5 hPa 0,0 l/m² 0 min 0 W/m² 16,1 km/h (3 Bft) 95,74 %
19.04.2026 00:48 12,0 °C 11,7 °C 7,8 °C 91 % 1020,5 hPa 0,0 l/m² 0 min 0 W/m² 16,1 km/h (3 Bft) 100,00 %
19.04.2026 00:50 11,9 °C 11,7 °C 7,8 °C 91 % 1020,4 hPa 0,0 l/m² 0 min 0 W/m² 6,4 km/h (2 Bft) 97,83 %
19.04.2026 00:52 11,9 °C 11,7 °C 7,8 °C 91 % 1020,4 hPa 0,0 l/m² 0 min 0 W/m² 9,7 km/h (2 Bft) 97,87 %
19.04.2026 00:54 11,9 °C 11,7 °C 7,8 °C 91 % 1020,4 hPa 0,0 l/m² 0 min 0 W/m² 6,4 km/h (2 Bft) 100,00 %
19.04.2026 00:56 11,9 °C 11,7 °C 7,8 °C 91 % 1020,4 hPa 0,0 l/m² 0 min 0 W/m² 9,7 km/h (2 Bft) 95,74 %
19.04.2026 00:58 11,9 °C 11,7 °C 7,8 °C 91 % 1020,4 hPa 0,0 l/m² 0 min 0 W/m² 3,2 km/h (1 Bft) 93,62 %
19.04.2026 01:00 11,9 °C 11,7 °C 7,8 °C 91 % 1020,4 hPa 0,0 l/m² 0 min 0 W/m² 16,1 km/h (3 Bft) 93,62 %
19.04.2026 01:02 11,9 °C 11,1 °C 7,8 °C 91 % 1020,3 hPa 0,0 l/m² 0 min 0 W/m² 22,5 km/h (4 Bft) 95,74 %
19.04.2026 01:04 11,9 °C 11,1 °C 7,8 °C 91 % 1020,4 hPa 0,0 l/m² 0 min 0 W/m² 9,7 km/h (2 Bft) 94,00 %
19.04.2026 01:06 11,9 °C 11,1 °C 7,8 °C 91 % 1020,4 hPa 0,0 l/m² 0 min 0 W/m² 12,9 km/h (3 Bft) 95,65 %
19.04.2026 01:08 11,9 °C 11,1 °C 7,8 °C 91 % 1020,4 hPa 0,0 l/m² 0 min 0 W/m² 19,3 km/h (3 Bft) 94,44 %
19.04.2026 01:10 11,9 °C 11,1 °C 7,8 °C 91 % 1020,5 hPa 0,0 l/m² 0 min 0 W/m² 19,3 km/h (3 Bft) 95,92 %
19.04.2026 01:12 11,9 °C 11,1 °C 7,8 °C 92 % 1020,4 hPa 0,0 l/m² 0 min 0 W/m² 22,5 km/h (4 Bft) 96,00 %
19.04.2026 01:14 11,9 °C 11,1 °C 7,8 °C 92 % 1020,5 hPa 0,0 l/m² 0 min 0 W/m² 9,7 km/h (2 Bft) 92,00 %
19.04.2026 01:16 11,9 °C 11,1 °C 7,8 °C 92 % 1020,5 hPa 0,0 l/m² 0 min 0 W/m² 9,7 km/h (2 Bft) 93,62 %
19.04.2026 01:18 11,9 °C 11,1 °C 7,8 °C 92 % 1020,5 hPa 0,0 l/m² 0 min 0 W/m² 12,9 km/h (3 Bft) 93,62 %
19.04.2026 01:20 11,9 °C 11,1 °C 7,8 °C 92 % 1020,5 hPa 0,0 l/m² 0 min 0 W/m² 16,1 km/h (3 Bft) 95,56 %
19.04.2026 01:22 11,9 °C 11,1 °C 7,8 °C 92 % 1020,5 hPa 0,0 l/m² 0 min 0 W/m² 6,4 km/h (2 Bft) 93,62 %
19.04.2026 01:24 11,9 °C 11,1 °C 7,8 °C 92 % 1020,5 hPa 0,0 l/m² 0 min 0 W/m² 9,7 km/h (2 Bft) 95,65 %
19.04.2026 01:26 11,9 °C 11,1 °C 7,8 °C 92 % 1020,5 hPa 0,0 l/m² 0 min 0 W/m² 12,9 km/h (3 Bft) 95,74 %
19.04.2026 01:28 11,9 °C 11,1 °C 7,8 °C 92 % 1020,5 hPa 0,0 l/m² 0 min 0 W/m² 9,7 km/h (2 Bft) 93,62 %
19.04.2026 01:30 11,9 °C 11,1 °C 7,8 °C 92 % 1020,5 hPa 0,0 l/m² 0 min 0 W/m² 12,9 km/h (3 Bft) 93,62 %
19.04.2026 01:32 11,8 °C 11,1 °C 7,2 °C 92 % 1020,4 hPa 0,2 l/m² 0 min 0 W/m² 9,7 km/h (2 Bft) 95,74 %
19.04.2026 01:34 11,8 °C 11,1 °C 7,2 °C 92 % 1020,4 hPa 0,0 l/m² 0 min 0 W/m² 9,7 km/h (2 Bft) 94,00 %
19.04.2026 01:36 11,8 °C 11,1 °C 7,2 °C 92 % 1020,4 hPa 0,0 l/m² 0 min 0 W/m² 6,4 km/h (2 Bft) 95,74 %
19.04.2026 01:38 11,8 °C 11,1 °C 7,2 °C 92 % 1020,5 hPa 0,2 l/m² 0 min 0 W/m² 6,4 km/h (2 Bft) 95,74 %
19.04.2026 01:40 11,8 °C 10,6 °C 7,2 °C 92 % 1020,5 hPa 0,0 l/m² 0 min 0 W/m² 9,7 km/h (2 Bft) 97,96 %
19.04.2026 01:42 11,8 °C 10,6 °C 7,2 °C 92 % 1020,5 hPa 0,2 l/m² 0 min 0 W/m² 12,9 km/h (3 Bft) 97,87 %
19.04.2026 01:44 11,8 °C 10,6 °C 6,7 °C 92 % 1020,5 hPa 0,2 l/m² 0 min 0 W/m² 19,3 km/h (3 Bft) 97,87 %
19.04.2026 01:46 11,8 °C 10,6 °C 7,2 °C 92 % 1020,5 hPa 0,5 l/m² 0 min 0 W/m² 6,4 km/h (2 Bft) 97,14 %
19.04.2026 01:48 11,8 °C 10,6 °C 6,7 °C 93 % 1020,5 hPa 0,5 l/m² 0 min 0 W/m² 6,4 km/h (2 Bft) 97,87 %
19.04.2026 01:50 11,7 °C 10,6 °C 6,7 °C 93 % 1020,5 hPa 0,2 l/m² 0 min 0 W/m² 6,4 km/h (2 Bft) 100,00 %
19.04.2026 01:52 11,7 °C 10,6 °C 6,7 °C 93 % 1020,5 hPa 0,2 l/m² 0 min 0 W/m² 9,7 km/h (2 Bft) 100,00 %
19.04.2026 01:54 11,7 °C 10,6 °C 6,7 °C 93 % 1020,4 hPa 0,0 l/m² 0 min 0 W/m² 6,4 km/h (2 Bft) 97,96 %
19.04.2026 01:56 11,7 °C 10,6 °C 6,7 °C 93 % 1020,4 hPa 0,2 l/m² 0 min 0 W/m² 9,7 km/h (2 Bft) 100,00 %
19.04.2026 01:58 11,7 °C 10,6 °C 6,7 °C 93 % 1020,5 hPa 0,2 l/m² 0 min 0 W/m² 3,2 km/h (1 Bft) 100,00 %
19.04.2026 02:00 11,6 °C 10,6 °C 6,7 °C 93 % 1020,5 hPa 0,0 l/m² 0 min 0 W/m² 9,7 km/h (2 Bft) 100,00 %
19.04.2026 02:02 11,6 °C 10,6 °C 6,7 °C 93 % 1020,4 hPa 0,2 l/m² 0 min 0 W/m² 9,7 km/h (2 Bft) 96,23 %
19.04.2026 02:04 11,6 °C 10,6 °C 6,7 °C 93 % 1020,4 hPa 0,2 l/m² 0 min 0 W/m² 3,2 km/h (1 Bft) 97,87 %
19.04.2026 02:06 11,6 °C 10,6 °C 6,7 °C 93 % 1020,4 hPa 0,2 l/m² 0 min 0 W/m² 6,4 km/h (2 Bft) 97,14 %
19.04.2026 02:08 11,6 °C 10,6 °C 6,7 °C 93 % 1020,3 hPa 0,2 l/m² 0 min 0 W/m² 6,4 km/h (2 Bft) 98,00 %
19.04.2026 02:10 11,6 °C 10,0 °C 6,7 °C 94 % 1020,3 hPa 0,2 l/m² 0 min 0 W/m² 6,4 km/h (2 Bft) 97,87 %
19.04.2026 02:12 11,6 °C 10,0 °C 6,7 °C 94 % 1020,3 hPa 0,2 l/m² 0 min 0 W/m² 6,4 km/h (2 Bft) 98,08 %
19.04.2026 02:14 11,5 °C 10,0 °C 6,7 °C 94 % 1020,4 hPa 0,0 l/m² 0 min 0 W/m² 6,4 km/h (2 Bft) 97,87 %
19.04.2026 02:16 11,5 °C 10,0 °C 6,7 °C 94 % 1020,3 hPa 0,2 l/m² 0 min 0 W/m² 6,4 km/h (2 Bft) 97,87 %
19.04.2026 02:18 11,4 °C 10,0 °C 6,7 °C 94 % 1020,3 hPa 0,0 l/m² 0 min 0 W/m² 12,9 km/h (3 Bft) 97,87 %
19.04.2026 02:20 11,4 °C 10,0 °C 6,7 °C 94 % 1020,4 hPa 0,2 l/m² 0 min 0 W/m² 9,7 km/h (2 Bft) 97,87 %
19.04.2026 02:22 11,4 °C 10,0 °C 6,7 °C 94 % 1020,4 hPa 0,0 l/m² 0 min 0 W/m² 12,9 km/h (3 Bft) 97,87 %
19.04.2026 02:24 11,4 °C 10,0 °C 6,7 °C 94 % 1020,4 hPa 0,0 l/m² 0 min 0 W/m² 12,9 km/h (3 Bft) 97,87 %
19.04.2026 02:26 11,3 °C 10,0 °C 6,7 °C 94 % 1020,4 hPa 0,0 l/m² 0 min 0 W/m² 12,9 km/h (3 Bft) 97,87 %
19.04.2026 02:28 11,3 °C 10,0 °C 6,7 °C 94 % 1020,3 hPa 0,2 l/m² 0 min 0 W/m² 6,4 km/h (2 Bft) 95,65 %
19.04.2026 02:30 11,3 °C 10,0 °C 6,7 °C 94 % 1020,3 hPa 0,0 l/m² 0 min 0 W/m² 16,1 km/h (3 Bft) 97,87 %
19.04.2026 02:32 11,2 °C 10,0 °C 6,1 °C 94 % 1020,3 hPa 0,2 l/m² 0 min 0 W/m² 16,1 km/h (3 Bft) 97,87 %
19.04.2026 02:34 11,2 °C 10,0 °C 6,7 °C 94 % 1020,2 hPa 0,0 l/m² 0 min 0 W/m² 3,2 km/h (1 Bft) 100,00 %
19.04.2026 02:36 11,2 °C 10,0 °C 6,7 °C 95 % 1020,2 hPa 0,2 l/m² 0 min 0 W/m² 3,2 km/h (1 Bft) 100,00 %
19.04.2026 02:38 11,1 °C 10,0 °C 6,7 °C 95 % 1020,2 hPa 0,2 l/m² 0 min 0 W/m² 16,1 km/h (3 Bft) 100,00 %
19.04.2026 02:40 11,1 °C 10,0 °C 6,7 °C 95 % 1020,0 hPa 0,2 l/m² 0 min 0 W/m² 12,9 km/h (3 Bft) 100,00 %
19.04.2026 02:42 11,1 °C 10,0 °C 6,1 °C 95 % 1020,0 hPa 0,0 l/m² 0 min 0 W/m² 6,4 km/h (2 Bft) 100,00 %
19.04.2026 02:44 11,0 °C 10,0 °C 6,1 °C 95 % 1020,1 hPa 0,2 l/m² 0 min 0 W/m² 3,2 km/h (1 Bft) 97,87 %
19.04.2026 02:46 10,9 °C 10,0 °C 6,1 °C 95 % 1020,1 hPa 0,0 l/m² 0 min 0 W/m² 9,7 km/h (2 Bft) 100,00 %
19.04.2026 02:48 10,9 °C 10,0 °C 6,1 °C 95 % 1020,1 hPa 0,0 l/m² 0 min 0 W/m² 6,4 km/h (2 Bft) 100,00 %
19.04.2026 02:50 10,8 °C 10,0 °C 6,1 °C 95 % 1020,1 hPa 0,0 l/m² 0 min 0 W/m² 12,9 km/h (3 Bft) 100,00 %
19.04.2026 02:52 10,8 °C 10,0 °C 6,1 °C 95 % 1020,1 hPa 0,0 l/m² 0 min 0 W/m² 6,4 km/h (2 Bft) 100,00 %
19.04.2026 02:54 10,7 °C 10,0 °C 6,1 °C 95 % 1020,2 hPa 0,0 l/m² 0 min 0 W/m² 6,4 km/h (2 Bft) 100,00 %
19.04.2026 02:56 10,7 °C 9,4 °C 6,1 °C 95 % 1020,2 hPa 0,0 l/m² 0 min 0 W/m² 3,2 km/h (1 Bft) 100,00 %
19.04.2026 02:58 10,7 °C 9,4 °C 6,1 °C 95 % 1020,3 hPa 0,0 l/m² 0 min 0 W/m² 6,4 km/h (2 Bft) 100,00 %
19.04.2026 03:00 10,6 °C 9,4 °C 6,1 °C 95 % 1020,3 hPa 0,0 l/m² 0 min 0 W/m² 3,2 km/h (1 Bft) 97,96 %
19.04.2026 03:02 10,6 °C 9,4 °C 6,1 °C 95 % 1020,3 hPa 0,0 l/m² 0 min 0 W/m² 3,2 km/h (1 Bft) 100,00 %
19.04.2026 03:04 10,6 °C 9,4 °C 6,1 °C 95 % 1020,3 hPa 0,0 l/m² 0 min 0 W/m² 6,4 km/h (2 Bft) 100,00 %
19.04.2026 03:06 10,6 °C 9,4 °C 6,1 °C 95 % 1020,3 hPa 0,0 l/m² 0 min 0 W/m² 6,4 km/h (2 Bft) 97,87 %
19.04.2026 03:08 10,5 °C 9,4 °C 5,6 °C 95 % 1020,3 hPa 0,0 l/m² 0 min 0 W/m² 3,2 km/h (1 Bft) 100,00 %
19.04.2026 03:10 10,5 °C 9,4 °C 6,1 °C 95 % 1020,3 hPa 0,2 l/m² 0 min 0 W/m² 3,2 km/h (1 Bft) 100,00 %
19.04.2026 03:12 10,4 °C 9,4 °C 6,1 °C 95 % 1020,3 hPa 0,0 l/m² 0 min 0 W/m² 3,2 km/h (1 Bft) 100,00 %
19.04.2026 03:14 10,4 °C 9,4 °C 6,1 °C 95 % 1020,3 hPa 0,2 l/m² 0 min 0 W/m² 6,4 km/h (2 Bft) 100,00 %
19.04.2026 03:16 10,4 °C 9,4 °C 6,1 °C 95 % 1020,4 hPa 0,0 l/m² 0 min 0 W/m² 12,9 km/h (3 Bft) 100,00 %
19.04.2026 03:18 10,4 °C 9,4 °C 5,6 °C 95 % 1020,3 hPa 0,0 l/m² 0 min 0 W/m² 12,9 km/h (3 Bft) 97,87 %
19.04.2026 03:20 10,4 °C 9,4 °C 5,6 °C 95 % 1020,3 hPa 0,0 l/m² 0 min 0 W/m² 9,7 km/h (2 Bft) 100,00 %
19.04.2026 03:22 10,3 °C 9,4 °C 5,6 °C 95 % 1020,3 hPa 0,2 l/m² 0 min 0 W/m² 12,9 km/h (3 Bft) 97,87 %
19.04.2026 03:24 10,3 °C 9,4 °C 5,6 °C 95 % 1020,3 hPa 0,0 l/m² 0 min 0 W/m² 9,7 km/h (2 Bft) 97,14 %
19.04.2026 03:26 10,2 °C 9,4 °C 5,6 °C 95 % 1020,3 hPa 0,2 l/m² 0 min 0 W/m² 6,4 km/h (2 Bft) 98,00 %
19.04.2026 03:28 10,2 °C 9,4 °C 5,6 °C 95 % 1020,3 hPa 0,0 l/m² 0 min 0 W/m² 9,7 km/h (2 Bft) 97,87 %
19.04.2026 03:30 10,2 °C 9,4 °C 5,6 °C 95 % 1020,3 hPa 0,0 l/m² 0 min 0 W/m² 6,4 km/h (2 Bft) 98,00 %
19.04.2026 03:32 10,2 °C 9,4 °C 5,6 °C 95 % 1020,3 hPa 0,0 l/m² 0 min 0 W/m² 3,2 km/h (1 Bft) 95,65 %
19.04.2026 03:34 10,2 °C 9,4 °C 5,6 °C 95 % 1020,3 hPa 0,0 l/m² 0 min 0 W/m² 6,4 km/h (2 Bft) 97,87 %
19.04.2026 03:36 10,2 °C 9,4 °C 5,6 °C 95 % 1020,2 hPa 0,0 l/m² 0 min 0 W/m² 6,4 km/h (2 Bft) 97,87 %
19.04.2026 03:38 10,2 °C 9,4 °C 5,6 °C 95 % 1020,2 hPa 0,0 l/m² 0 min 0 W/m² 6,4 km/h (2 Bft) 96,00 %
19.04.2026 03:40 10,2 °C 9,4 °C 5,6 °C 95 % 1020,2 hPa 0,0 l/m² 0 min 0 W/m² 3,2 km/h (1 Bft) 74,47 %
19.04.2026 03:42 10,2 °C 9,4 °C 5,6 °C 95 % 1020,2 hPa 0,0 l/m² 0 min 0 W/m² 3,2 km/h (1 Bft) 77,27 %
19.04.2026 03:44 10,2 °C 9,4 °C 5,6 °C 95 % 1020,2 hPa 0,0 l/m² 0 min 0 W/m² 9,7 km/h (2 Bft) 97,87 %
19.04.2026 03:46 10,2 °C 9,4 °C 5,6 °C 95 % 1020,2 hPa 0,0 l/m² 0 min 0 W/m² 9,7 km/h (2 Bft) 97,87 %
19.04.2026 03:48 10,2 °C 9,4 °C 5,6 °C 95 % 1020,3 hPa 0,0 l/m² 0 min 0 W/m² 12,9 km/h (3 Bft) 97,83 %
19.04.2026 03:50 10,2 °C 9,4 °C 5,6 °C 95 % 1020,2 hPa 0,0 l/m² 0 min 0 W/m² 6,4 km/h (2 Bft) 96,00 %
19.04.2026 03:52 10,2 °C 9,4 °C 5,6 °C 95 % 1020,2 hPa 0,0 l/m² 0 min 0 W/m² 6,4 km/h (2 Bft) 95,74 %
19.04.2026 03:54 10,1 °C 9,4 °C 5,6 °C 95 % 1020,2 hPa 0,0 l/m² 0 min 0 W/m² 9,7 km/h (2 Bft) 93,62 %
19.04.2026 03:56 10,1 °C 9,4 °C 5,6 °C 95 % 1020,3 hPa 0,0 l/m² 0 min 0 W/m² 6,4 km/h (2 Bft) 95,74 %
19.04.2026 03:58 10,1 °C 9,4 °C 5,6 °C 96 % 1020,3 hPa 0,0 l/m² 0 min 0 W/m² 6,4 km/h (2 Bft) 93,62 %
19.04.2026 04:00 10,1 °C 9,4 °C 5,6 °C 96 % 1020,3 hPa 0,0 l/m² 0 min 0 W/m² 6,4 km/h (2 Bft) 95,74 %
19.04.2026 04:02 10,1 °C 9,4 °C 5,6 °C 96 % 1020,2 hPa 0,0 l/m² 0 min 0 W/m² 16,1 km/h (3 Bft) 95,65 %
19.04.2026 04:04 10,1 °C 9,4 °C 5,6 °C 96 % 1020,1 hPa 0,2 l/m² 0 min 0 W/m² 9,7 km/h (2 Bft) 95,74 %
19.04.2026 04:06 9,9 °C 8,9 °C 5,0 °C 96 % 1020,1 hPa 0,0 l/m² 0 min 0 W/m² 16,1 km/h (3 Bft) 91,49 %
19.04.2026 04:08 9,9 °C 8,9 °C 5,0 °C 96 % 1020,1 hPa 0,0 l/m² 0 min 0 W/m² 19,3 km/h (3 Bft) 95,74 %
19.04.2026 04:10 9,8 °C 8,9 °C 5,0 °C 96 % 1020,1 hPa 0,2 l/m² 0 min 0 W/m² 19,3 km/h (3 Bft) 100,00 %
19.04.2026 04:12 9,8 °C 8,9 °C 5,0 °C 95 % 1020,1 hPa 0,0 l/m² 0 min 0 W/m² 12,9 km/h (3 Bft) 95,74 %
19.04.2026 04:14 9,8 °C 8,9 °C 5,0 °C 95 % 1020,1 hPa 0,0 l/m² 0 min 0 W/m² 12,9 km/h (3 Bft) 96,00 %
19.04.2026 04:16 9,7 °C 8,9 °C 5,0 °C 95 % 1020,1 hPa 0,0 l/m² 0 min 0 W/m² 12,9 km/h (3 Bft) 94,74 %
19.04.2026 04:18 9,7 °C 8,9 °C 5,0 °C 95 % 1020,2 hPa 0,0 l/m² 0 min 0 W/m² 3,2 km/h (1 Bft) 95,74 %
19.04.2026 04:20 9,7 °C 8,9 °C 5,0 °C 96 % 1020,1 hPa 0,0 l/m² 0 min 0 W/m² 12,9 km/h (3 Bft) 97,87 %
19.04.2026 04:22 9,6 °C 8,9 °C 5,0 °C 96 % 1020,3 hPa 0,0 l/m² 0 min 0 W/m² 9,7 km/h (2 Bft) 97,83 %
19.04.2026 04:24 9,6 °C 8,9 °C 5,0 °C 96 % 1020,2 hPa 0,0 l/m² 0 min 0 W/m² 19,3 km/h (3 Bft) 97,87 %
19.04.2026 04:26 9,5 °C 8,9 °C 5,0 °C 96 % 1020,4 hPa 0,0 l/m² 0 min 0 W/m² 19,3 km/h (3 Bft) 96,00 %
19.04.2026 04:28 9,4 °C 8,9 °C 5,0 °C 95 % 1020,4 hPa 0,0 l/m² 0 min 0 W/m² 9,7 km/h (2 Bft) 97,87 %
19.04.2026 04:30 9,4 °C 8,9 °C 5,0 °C 95 % 1020,4 hPa 0,0 l/m² 0 min 0 W/m² 9,7 km/h (2 Bft) 97,87 %
19.04.2026 04:32 9,4 °C 8,3 °C 5,0 °C 95 % 1020,4 hPa 0,0 l/m² 0 min 0 W/m² 22,5 km/h (4 Bft) 98,00 %
19.04.2026 04:34 9,4 °C 8,3 °C 5,0 °C 95 % 1020,4 hPa 0,0 l/m² 0 min 0 W/m² 16,1 km/h (3 Bft) 97,96 %
19.04.2026 04:36 9,3 °C 8,3 °C 5,0 °C 95 % 1020,5 hPa 0,0 l/m² 0 min 0 W/m² 22,5 km/h (4 Bft) 97,22 %
19.04.2026 04:38 9,3 °C 8,3 °C 5,0 °C 95 % 1020,4 hPa 0,0 l/m² 0 min 0 W/m² 16,1 km/h (3 Bft) 98,08 %
19.04.2026 04:40 9,3 °C 8,3 °C 5,0 °C 95 % 1020,4 hPa 0,0 l/m² 0 min 0 W/m² 16,1 km/h (3 Bft) 97,87 %
19.04.2026 04:42 9,3 °C 8,3 °C 5,0 °C 96 % 1020,4 hPa 0,0 l/m² 0 min 0 W/m² 19,3 km/h (3 Bft) 95,74 %
19.04.2026 04:44 9,3 °C 8,3 °C 5,0 °C 96 % 1020,4 hPa 0,0 l/m² 0 min 0 W/m² 16,1 km/h (3 Bft) 97,87 %
19.04.2026 04:46 9,3 °C 8,3 °C 5,0 °C 96 % 1020,4 hPa 0,0 l/m² 0 min 0 W/m² 6,4 km/h (2 Bft) 98,00 %
19.04.2026 04:48 9,3 °C 8,3 °C 5,0 °C 96 % 1020,3 hPa 0,0 l/m² 0 min 0 W/m² 12,9 km/h (3 Bft) 98,00 %
19.04.2026 04:50 9,3 °C 8,3 °C 5,0 °C 96 % 1020,3 hPa 0,0 l/m² 0 min 0 W/m² 12,9 km/h (3 Bft) 97,87 %
19.04.2026 04:52 9,3 °C 8,3 °C 5,0 °C 96 % 1020,4 hPa 0,0 l/m² 0 min 0 W/m² 9,7 km/h (2 Bft) 97,37 %
19.04.2026 04:54 9,3 °C 8,3 °C 5,0 °C 96 % 1020,4 hPa 0,0 l/m² 0 min 0 W/m² 9,7 km/h (2 Bft) 97,96 %
19.04.2026 04:56 9,3 °C 8,3 °C 5,0 °C 96 % 1020,4 hPa 0,0 l/m² 0 min 0 W/m² 12,9 km/h (3 Bft) 97,87 %
19.04.2026 04:58 9,3 °C 8,3 °C 5,0 °C 96 % 1020,4 hPa 0,0 l/m² 0 min 0 W/m² 9,7 km/h (2 Bft) 97,87 %
19.04.2026 05:00 9,3 °C 8,3 °C 5,0 °C 96 % 1020,5 hPa 0,0 l/m² 0 min 0 W/m² 9,7 km/h (2 Bft) 95,74 %
19.04.2026 05:02 9,2 °C 8,3 °C 4,4 °C 96 % 1020,4 hPa 0,0 l/m² 0 min 0 W/m² 9,7 km/h (2 Bft) 97,87 %
19.04.2026 05:04 9,2 °C 8,3 °C 4,4 °C 96 % 1020,5 hPa 0,0 l/m² 0 min 0 W/m² 9,7 km/h (2 Bft) 98,00 %
19.04.2026 05:06 9,2 °C 8,3 °C 4,4 °C 96 % 1020,6 hPa 0,0 l/m² 0 min 0 W/m² 16,1 km/h (3 Bft) 97,87 %
19.04.2026 05:08 9,2 °C 8,3 °C 4,4 °C 96 % 1020,6 hPa 0,0 l/m² 0 min 0 W/m² 9,7 km/h (2 Bft) 97,83 %
19.04.2026 05:10 9,2 °C 8,3 °C 4,4 °C 96 % 1020,5 hPa 0,0 l/m² 0 min 0 W/m² 16,1 km/h (3 Bft) 97,87 %
19.04.2026 05:12 9,2 °C 8,3 °C 4,4 °C 96 % 1020,5 hPa 0,0 l/m² 0 min 0 W/m² 16,1 km/h (3 Bft) 97,87 %
19.04.2026 05:14 9,2 °C 8,3 °C 4,4 °C 96 % 1020,5 hPa 0,0 l/m² 0 min 0 W/m² 6,4 km/h (2 Bft) 97,87 %
19.04.2026 05:16 9,2 °C 8,3 °C 4,4 °C 96 % 1020,5 hPa 0,0 l/m² 0 min 0 W/m² 6,4 km/h (2 Bft) 100,00 %
19.04.2026 05:18 9,1 °C 8,3 °C 4,4 °C 96 % 1020,5 hPa 0,0 l/m² 0 min 0 W/m² 9,7 km/h (2 Bft) 100,00 %
19.04.2026 05:20 9,1 °C 8,3 °C 4,4 °C 96 % 1020,5 hPa 0,0 l/m² 0 min 0 W/m² 6,4 km/h (2 Bft) 100,00 %
19.04.2026 05:22 9,1 °C 8,3 °C 4,4 °C 96 % 1020,4 hPa 0,0 l/m² 0 min 0 W/m² 6,4 km/h (2 Bft) 100,00 %
19.04.2026 05:24 9,1 °C 8,3 °C 4,4 °C 96 % 1020,4 hPa 0,0 l/m² 0 min 0 W/m² 6,4 km/h (2 Bft) 100,00 %
19.04.2026 05:26 9,1 °C 8,3 °C 4,4 °C 96 % 1020,5 hPa 0,0 l/m² 0 min 0 W/m² 12,9 km/h (3 Bft) 100,00 %
19.04.2026 05:28 9,1 °C 7,8 °C 4,4 °C 96 % 1020,4 hPa 0,0 l/m² 0 min 0 W/m² 9,7 km/h (2 Bft) 100,00 %
19.04.2026 05:30 9,0 °C 7,8 °C 4,4 °C 96 % 1020,5 hPa 0,0 l/m² 0 min 0 W/m² 9,7 km/h (2 Bft) 100,00 %
19.04.2026 05:32 9,0 °C 7,8 °C 4,4 °C 96 % 1020,5 hPa 0,0 l/m² 0 min 0 W/m² 9,7 km/h (2 Bft) 97,87 %
19.04.2026 05:34 8,9 °C 7,8 °C 4,4 °C 96 % 1020,5 hPa 0,0 l/m² 0 min 0 W/m² 6,4 km/h (2 Bft) 97,87 %
19.04.2026 05:36 8,9 °C 7,8 °C 4,4 °C 96 % 1020,6 hPa 0,0 l/m² 0 min 0 W/m² 9,7 km/h (2 Bft) 97,87 %
19.04.2026 05:38 8,8 °C 7,8 °C 4,4 °C 96 % 1020,6 hPa 0,0 l/m² 0 min 0 W/m² 3,2 km/h (1 Bft) 97,87 %
19.04.2026 05:40 8,8 °C 7,8 °C 4,4 °C 96 % 1020,5 hPa 0,0 l/m² 0 min 0 W/m² 6,4 km/h (2 Bft) 97,14 %
19.04.2026 05:42 8,8 °C 7,8 °C 4,4 °C 96 % 1020,6 hPa 0,0 l/m² 0 min 0 W/m² 3,2 km/h (1 Bft) 96,88 %
19.04.2026 05:44 8,8 °C 7,8 °C 4,4 °C 96 % 1020,6 hPa 0,0 l/m² 0 min 0 W/m² 9,7 km/h (2 Bft) 97,87 %
19.04.2026 05:46 8,8 °C 7,8 °C 4,4 °C 96 % 1020,7 hPa 0,0 l/m² 0 min 0 W/m² 12,9 km/h (3 Bft) 95,74 %
19.04.2026 05:48 8,8 °C 7,8 °C 3,9 °C 96 % 1020,6 hPa 0,0 l/m² 0 min 0 W/m² 9,7 km/h (2 Bft) 97,87 %
19.04.2026 05:50 8,8 °C 7,8 °C 3,9 °C 96 % 1020,7 hPa 0,0 l/m² 0 min 0 W/m² 9,7 km/h (2 Bft) 98,00 %
19.04.2026 05:52 8,7 °C 7,8 °C 3,9 °C 96 % 1020,7 hPa 0,0 l/m² 0 min 0 W/m² 9,7 km/h (2 Bft) 97,87 %
19.04.2026 05:54 8,7 °C 7,2 °C 3,9 °C 96 % 1020,7 hPa 0,0 l/m² 0 min 0 W/m² 6,4 km/h (2 Bft) 93,62 %
19.04.2026 05:56 8,6 °C 7,2 °C 3,9 °C 96 % 1020,6 hPa 0,0 l/m² 0 min 0 W/m² 12,9 km/h (3 Bft) 97,37 %
19.04.2026 05:58 8,6 °C 7,2 °C 3,9 °C 96 % 1020,6 hPa 0,0 l/m² 0 min 0 W/m² 12,9 km/h (3 Bft) 97,87 %
19.04.2026 06:00 8,6 °C 7,2 °C 3,9 °C 96 % 1020,6 hPa 0,0 l/m² 0 min 0 W/m² 9,7 km/h (2 Bft) 97,83 %
19.04.2026 06:02 8,5 °C 7,2 °C 3,9 °C 96 % 1020,6 hPa 0,0 l/m² 0 min 0 W/m² 12,9 km/h (3 Bft) 97,87 %
19.04.2026 06:04 8,5 °C 7,2 °C 3,9 °C 96 % 1020,6 hPa 0,0 l/m² 0 min 0 W/m² 9,7 km/h (2 Bft) 97,87 %
19.04.2026 06:06 8,4 °C 7,2 °C 3,9 °C 96 % 1020,6 hPa 0,0 l/m² 0 min 0 W/m² 6,4 km/h (2 Bft) 98,15 %
19.04.2026 06:08 8,4 °C 7,2 °C 3,9 °C 96 % 1020,6 hPa 0,0 l/m² 0 min 0 W/m² 9,7 km/h (2 Bft) 97,87 %
19.04.2026 06:10 8,4 °C 7,2 °C 3,9 °C 96 % 1020,6 hPa 0,0 l/m² 0 min 0 W/m² 6,4 km/h (2 Bft) 97,87 %
19.04.2026 06:12 8,4 °C 7,2 °C 3,9 °C 96 % 1020,6 hPa 0,0 l/m² 0 min 0 W/m² 19,3 km/h (3 Bft) 97,87 %
19.04.2026 06:14 8,4 °C 7,2 °C 3,9 °C 96 % 1020,6 hPa 0,0 l/m² 0 min 0 W/m² 9,7 km/h (2 Bft) 97,83 %
19.04.2026 06:16 8,3 °C 7,2 °C 3,9 °C 96 % 1020,7 hPa 0,0 l/m² 0 min 0 W/m² 6,4 km/h (2 Bft) 95,74 %
19.04.2026 06:18 8,3 °C 7,2 °C 3,9 °C 96 % 1020,7 hPa 0,0 l/m² 0 min 0 W/m² 6,4 km/h (2 Bft) 97,87 %
19.04.2026 06:20 8,3 °C 7,2 °C 3,9 °C 96 % 1020,7 hPa 0,0 l/m² 0 min 0 W/m² 19,3 km/h (3 Bft) 98,00 %
19.04.2026 06:22 8,3 °C 7,2 °C 3,9 °C 96 % 1020,7 hPa 0,0 l/m² 0 min 0 W/m² 12,9 km/h (3 Bft) 97,87 %
19.04.2026 06:24 8,3 °C 7,2 °C 3,9 °C 96 % 1020,7 hPa 0,0 l/m² 0 min 0 W/m² 9,7 km/h (2 Bft) 97,37 %
19.04.2026 06:26 8,3 °C 7,2 °C 3,9 °C 96 % 1020,7 hPa 0,0 l/m² 0 min 0 W/m² 12,9 km/h (3 Bft) 97,87 %
19.04.2026 06:28 8,3 °C 7,2 °C 3,9 °C 96 % 1020,7 hPa 0,0 l/m² 0 min 0 W/m² 12,9 km/h (3 Bft) 93,62 %
19.04.2026 06:30 8,3 °C 7,2 °C 3,9 °C 96 % 1020,6 hPa 0,0 l/m² 0 min 0 W/m² 12,9 km/h (3 Bft) 98,00 %
19.04.2026 06:32 8,3 °C 7,2 °C 3,9 °C 96 % 1020,6 hPa 0,0 l/m² 0 min 0 W/m² 12,9 km/h (3 Bft) 97,83 %
19.04.2026 06:34 8,2 °C 7,2 °C 3,9 °C 96 % 1020,6 hPa 0,0 l/m² 0 min 0 W/m² 16,1 km/h (3 Bft) 96,00 %
19.04.2026 06:36 8,2 °C 7,2 °C 3,9 °C 96 % 1020,7 hPa 0,0 l/m² 0 min 0 W/m² 9,7 km/h (2 Bft) 97,87 %
19.04.2026 06:38 8,2 °C 7,2 °C 3,9 °C 96 % 1020,7 hPa 0,0 l/m² 0 min 0 W/m² 19,3 km/h (3 Bft) 97,87 %
19.04.2026 06:40 8,2 °C 7,2 °C 3,9 °C 96 % 1020,7 hPa 0,0 l/m² 0 min 0 W/m² 16,1 km/h (3 Bft) 98,00 %
19.04.2026 06:42 8,2 °C 7,2 °C 3,9 °C 96 % 1020,7 hPa 0,0 l/m² 0 min 0 W/m² 16,1 km/h (3 Bft) 100,00 %
19.04.2026 06:44 8,1 °C 7,2 °C 3,9 °C 96 % 1020,7 hPa 0,0 l/m² 0 min 0 W/m² 19,3 km/h (3 Bft) 100,00 %
19.04.2026 06:46 8,1 °C 7,2 °C 3,9 °C 96 % 1020,7 hPa 0,0 l/m² 0 min 0 W/m² 16,1 km/h (3 Bft) 100,00 %
19.04.2026 06:48 8,2 °C 7,2 °C 3,9 °C 96 % 1020,7 hPa 0,0 l/m² 0 min 0 W/m² 16,1 km/h (3 Bft) 100,00 %
19.04.2026 06:50 8,2 °C 7,2 °C 3,9 °C 96 % 1020,7 hPa 0,0 l/m² 0 min 5 W/m² 19,3 km/h (3 Bft) 100,00 %
19.04.2026 06:52 8,2 °C 7,8 °C 3,9 °C 96 % 1020,8 hPa 0,0 l/m² 0 min 5 W/m² 9,7 km/h (2 Bft) 100,00 %
19.04.2026 06:54 8,2 °C 7,8 °C 3,9 °C 96 % 1020,7 hPa 0,0 l/m² 0 min 5 W/m² 9,7 km/h (2 Bft) 100,00 %
19.04.2026 06:56 8,2 °C 7,8 °C 3,9 °C 96 % 1020,8 hPa 0,0 l/m² 0 min 5 W/m² 6,4 km/h (2 Bft) 95,74 %
19.04.2026 06:58 8,2 °C 7,8 °C 3,9 °C 96 % 1020,8 hPa 0,0 l/m² 0 min 5 W/m² 6,4 km/h (2 Bft) 100,00 %
19.04.2026 07:00 8,2 °C 7,8 °C 3,9 °C 96 % 1020,8 hPa 0,0 l/m² 0 min 5 W/m² 9,7 km/h (2 Bft) 100,00 %
19.04.2026 07:02 8,2 °C 7,8 °C 3,9 °C 96 % 1020,9 hPa 0,0 l/m² 0 min 7 W/m² 6,4 km/h (2 Bft) 97,87 %
19.04.2026 07:04 8,2 °C 7,2 °C 3,9 °C 96 % 1020,9 hPa 0,0 l/m² 0 min 7 W/m² 9,7 km/h (2 Bft) 100,00 %
19.04.2026 07:06 8,2 °C 7,8 °C 3,9 °C 96 % 1020,9 hPa 0,0 l/m² 0 min 9 W/m² 12,9 km/h (3 Bft) 100,00 %
19.04.2026 07:08 8,2 °C 7,8 °C 3,9 °C 96 % 1020,9 hPa 0,0 l/m² 0 min 10 W/m² 12,9 km/h (3 Bft) 100,00 %
19.04.2026 07:10 8,2 °C 7,8 °C 3,9 °C 96 % 1020,9 hPa 0,0 l/m² 0 min 14 W/m² 9,7 km/h (2 Bft) 100,00 %
19.04.2026 07:12 8,2 °C 7,8 °C 3,9 °C 96 % 1020,9 hPa 0,0 l/m² 0 min 21 W/m² 16,1 km/h (3 Bft) 97,87 %
19.04.2026 07:14 8,2 °C 7,8 °C 3,9 °C 96 % 1020,9 hPa 0,0 l/m² 0 min 23 W/m² 12,9 km/h (3 Bft) 97,87 %
19.04.2026 07:16 8,2 °C 7,8 °C 3,9 °C 96 % 1020,9 hPa 0,0 l/m² 0 min 27 W/m² 12,9 km/h (3 Bft) 97,87 %
19.04.2026 07:18 8,2 °C 7,8 °C 3,9 °C 96 % 1021,0 hPa 0,0 l/m² 0 min 25 W/m² 9,7 km/h (2 Bft) 98,00 %
19.04.2026 07:20 8,2 °C 7,8 °C 3,9 °C 97 % 1021,0 hPa 0,0 l/m² 0 min 22 W/m² 12,9 km/h (3 Bft) 95,12 %
19.04.2026 07:22 8,2 °C 7,8 °C 3,9 °C 97 % 1021,0 hPa 0,0 l/m² 0 min 22 W/m² 6,4 km/h (2 Bft) 95,65 %
19.04.2026 07:24 8,2 °C 7,8 °C 3,9 °C 97 % 1021,0 hPa 0,0 l/m² 0 min 25 W/m² 6,4 km/h (2 Bft) 97,87 %
19.04.2026 07:26 8,2 °C 7,8 °C 4,4 °C 97 % 1021,0 hPa 0,0 l/m² 0 min 26 W/m² 9,7 km/h (2 Bft) 96,00 %
19.04.2026 07:28 8,3 °C 7,8 °C 3,9 °C 97 % 1021,0 hPa 0,0 l/m² 0 min 26 W/m² 12,9 km/h (3 Bft) 97,87 %
19.04.2026 07:30 8,3 °C 7,8 °C 3,9 °C 97 % 1021,0 hPa 0,0 l/m² 0 min 32 W/m² 6,4 km/h (2 Bft) 95,74 %
19.04.2026 07:32 8,2 °C 7,8 °C 3,9 °C 97 % 1021,0 hPa 0,0 l/m² 0 min 44 W/m² 9,7 km/h (2 Bft) 97,87 %
19.04.2026 07:34 8,3 °C 7,8 °C 4,4 °C 97 % 1021,1 hPa 0,0 l/m² 0 min 38 W/m² 6,4 km/h (2 Bft) 97,96 %
19.04.2026 07:36 8,3 °C 7,8 °C 4,4 °C 97 % 1021,1 hPa 0,0 l/m² 0 min 36 W/m² 9,7 km/h (2 Bft) 91,49 %
19.04.2026 07:38 8,3 °C 7,8 °C 3,9 °C 97 % 1021,1 hPa 0,0 l/m² 0 min 35 W/m² 9,7 km/h (2 Bft) 95,74 %
19.04.2026 07:40 8,3 °C 7,8 °C 3,9 °C 97 % 1021,1 hPa 0,0 l/m² 0 min 39 W/m² 16,1 km/h (3 Bft) 96,00 %
19.04.2026 07:42 8,3 °C 7,8 °C 3,9 °C 97 % 1021,1 hPa 0,0 l/m² 0 min 41 W/m² 12,9 km/h (3 Bft) 93,62 %
19.04.2026 07:44 8,2 °C 7,8 °C 3,9 °C 97 % 1021,0 hPa 0,0 l/m² 0 min 43 W/m² 6,4 km/h (2 Bft) 97,87 %
19.04.2026 07:46 8,2 °C 7,8 °C 3,9 °C 97 % 1021,1 hPa 0,0 l/m² 0 min 47 W/m² 9,7 km/h (2 Bft) 97,87 %
19.04.2026 07:48 8,2 °C 7,8 °C 3,9 °C 97 % 1021,1 hPa 0,0 l/m² 0 min 52 W/m² 3,2 km/h (1 Bft) 97,83 %
19.04.2026 07:50 8,2 °C 7,8 °C 3,9 °C 97 % 1021,1 hPa 0,0 l/m² 0 min 55 W/m² 6,4 km/h (2 Bft) 95,74 %
19.04.2026 07:52 8,3 °C 8,3 °C 4,4 °C 97 % 1021,2 hPa 0,0 l/m² 0 min 53 W/m² 9,7 km/h (2 Bft) 97,87 %
19.04.2026 07:54 8,3 °C 8,3 °C 4,4 °C 97 % 1021,2 hPa 0,0 l/m² 0 min 55 W/m² 6,4 km/h (2 Bft) 97,87 %
19.04.2026 07:56 8,3 °C 8,3 °C 4,4 °C 97 % 1021,2 hPa 0,0 l/m² 0 min 52 W/m² 9,7 km/h (2 Bft) 95,74 %
19.04.2026 07:58 8,3 °C 8,3 °C 3,9 °C 97 % 1021,1 hPa 0,0 l/m² 0 min 45 W/m² 6,4 km/h (2 Bft) 97,87 %
19.04.2026 08:00 8,3 °C 7,8 °C 3,9 °C 97 % 1021,2 hPa 0,0 l/m² 0 min 56 W/m² 9,7 km/h (2 Bft) 97,87 %
19.04.2026 08:02 8,3 °C 7,8 °C 3,9 °C 97 % 1021,2 hPa 0,0 l/m² 0 min 47 W/m² 6,4 km/h (2 Bft) 95,74 %
19.04.2026 08:04 8,2 °C 7,8 °C 3,9 °C 97 % 1021,3 hPa 0,0 l/m² 0 min 40 W/m² 6,4 km/h (2 Bft) 97,83 %
19.04.2026 08:06 8,2 °C 7,8 °C 3,9 °C 97 % 1021,3 hPa 0,0 l/m² 0 min 44 W/m² 6,4 km/h (2 Bft) 97,87 %
19.04.2026 08:08 8,2 °C 7,8 °C 3,9 °C 97 % 1021,3 hPa 0,0 l/m² 0 min 52 W/m² 12,9 km/h (3 Bft) 97,37 %
19.04.2026 08:10 8,2 °C 7,8 °C 3,9 °C 97 % 1021,3 hPa 0,0 l/m² 0 min 59 W/m² 12,9 km/h (3 Bft) 96,00 %
19.04.2026 08:12 8,2 °C 7,8 °C 3,9 °C 97 % 1021,4 hPa 0,0 l/m² 0 min 60 W/m² 6,4 km/h (2 Bft) 95,74 %
19.04.2026 08:14 8,2 °C 7,8 °C 3,9 °C 97 % 1021,4 hPa 0,0 l/m² 0 min 68 W/m² 6,4 km/h (2 Bft) 97,87 %
19.04.2026 08:16 8,2 °C 7,8 °C 3,9 °C 97 % 1021,4 hPa 0,0 l/m² 0 min 56 W/m² 9,7 km/h (2 Bft) 97,87 %
19.04.2026 08:18 8,2 °C 7,8 °C 3,9 °C 97 % 1021,4 hPa 0,0 l/m² 0 min 46 W/m² 9,7 km/h (2 Bft) 98,00 %
19.04.2026 08:20 8,2 °C 7,8 °C 3,9 °C 97 % 1021,3 hPa 0,0 l/m² 0 min 43 W/m² 6,4 km/h (2 Bft) 97,83 %
19.04.2026 08:22 8,2 °C 7,8 °C 3,9 °C 97 % 1021,3 hPa 0,0 l/m² 0 min 42 W/m² 6,4 km/h (2 Bft) 94,00 %
19.04.2026 08:24 8,2 °C 7,8 °C 3,9 °C 97 % 1021,3 hPa 0,0 l/m² 0 min 43 W/m² 9,7 km/h (2 Bft) 95,83 %
19.04.2026 08:26 8,2 °C 7,8 °C 3,9 °C 97 % 1021,3 hPa 0,0 l/m² 0 min 43 W/m² 9,7 km/h (2 Bft) 98,36 %
19.04.2026 08:28 8,2 °C 8,3 °C 3,9 °C 97 % 1021,3 hPa 0,0 l/m² 0 min 44 W/m² 6,4 km/h (2 Bft) 91,49 %
19.04.2026 08:30 8,2 °C 8,3 °C 3,9 °C 97 % 1021,3 hPa 0,0 l/m² 0 min 44 W/m² 6,4 km/h (2 Bft) 95,74 %
19.04.2026 08:32 8,2 °C 8,3 °C 3,9 °C 97 % 1021,3 hPa 0,0 l/m² 0 min 45 W/m² 9,7 km/h (2 Bft) 97,87 %
19.04.2026 08:34 8,2 °C 7,8 °C 3,9 °C 97 % 1021,4 hPa 0,0 l/m² 0 min 46 W/m² 16,1 km/h (3 Bft) 96,00 %
19.04.2026 08:36 8,2 °C 8,3 °C 3,9 °C 97 % 1021,3 hPa 0,0 l/m² 0 min 50 W/m² 6,4 km/h (2 Bft) 97,87 %
19.04.2026 08:38 8,3 °C 8,3 °C 3,9 °C 97 % 1021,4 hPa 0,0 l/m² 0 min 53 W/m² 6,4 km/h (2 Bft) 97,83 %
19.04.2026 08:40 8,3 °C 8,3 °C 3,9 °C 97 % 1021,3 hPa 0,0 l/m² 0 min 60 W/m² 9,7 km/h (2 Bft) 95,74 %
19.04.2026 08:42 8,3 °C 8,3 °C 3,9 °C 97 % 1021,4 hPa 0,0 l/m² 0 min 77 W/m² 12,9 km/h (3 Bft) 97,87 %
19.04.2026 08:44 8,3 °C 8,3 °C 3,9 °C 97 % 1021,4 hPa 0,0 l/m² 0 min 64 W/m² 9,7 km/h (2 Bft) 97,87 %
19.04.2026 08:46 8,3 °C 8,3 °C 3,9 °C 97 % 1021,4 hPa 0,0 l/m² 0 min 62 W/m² 9,7 km/h (2 Bft) 97,87 %
19.04.2026 08:48 8,3 °C 8,3 °C 3,9 °C 97 % 1021,4 hPa 0,0 l/m² 0 min 73 W/m² 9,7 km/h (2 Bft) 97,87 %
19.04.2026 08:50 8,4 °C 8,3 °C 3,9 °C 97 % 1021,4 hPa 0,0 l/m² 0 min 77 W/m² 6,4 km/h (2 Bft) 97,87 %
19.04.2026 08:52 8,4 °C 8,3 °C 3,9 °C 97 % 1021,5 hPa 0,0 l/m² 0 min 115 W/m² 9,7 km/h (2 Bft) 95,74 %
19.04.2026 08:54 8,4 °C 8,9 °C 3,9 °C 97 % 1021,5 hPa 0,0 l/m² 2 min 240 W/m² 12,9 km/h (3 Bft) 97,96 %
19.04.2026 08:56 8,4 °C 8,9 °C 3,9 °C 97 % 1021,5 hPa 0,0 l/m² 2 min 227 W/m² 12,9 km/h (3 Bft) 97,87 %
19.04.2026 08:58 8,4 °C 8,9 °C 3,9 °C 97 % 1021,5 hPa 0,0 l/m² 0 min 83 W/m² 9,7 km/h (2 Bft) 95,74 %
19.04.2026 09:00 8,4 °C 10,0 °C 4,4 °C 97 % 1021,6 hPa 0,0 l/m² 0 min 123 W/m² 9,7 km/h (2 Bft) 93,62 %
19.04.2026 09:02 8,5 °C 11,7 °C 4,4 °C 97 % 1021,5 hPa 0,0 l/m² 2 min 282 W/m² 6,4 km/h (2 Bft) 97,37 %
19.04.2026 09:04 8,6 °C 13,3 °C 3,9 °C 97 % 1021,6 hPa 0,0 l/m² 2 min 306 W/m² 9,7 km/h (2 Bft) 93,22 %
19.04.2026 09:06 8,6 °C 15,0 °C 4,4 °C 97 % 1021,5 hPa 0,0 l/m² 2 min 329 W/m² 6,4 km/h (2 Bft) 95,74 %
19.04.2026 09:08 8,7 °C 15,6 °C 4,4 °C 97 % 1021,6 hPa 0,0 l/m² 2 min 337 W/m² 6,4 km/h (2 Bft) 94,29 %
19.04.2026 09:10 8,8 °C 16,7 °C 4,4 °C 97 % 1021,5 hPa 0,0 l/m² 2 min 351 W/m² 12,9 km/h (3 Bft) 97,14 %
19.04.2026 09:12 8,8 °C 16,1 °C 4,4 °C 97 % 1021,5 hPa 0,0 l/m² 2 min 346 W/m² 12,9 km/h (3 Bft) 95,08 %
19.04.2026 09:14 8,9 °C 16,1 °C 4,4 °C 97 % 1021,5 hPa 0,0 l/m² 2 min 222 W/m² 3,2 km/h (1 Bft) 95,74 %
19.04.2026 09:16 9,0 °C 16,1 °C 5,0 °C 97 % 1021,5 hPa 0,0 l/m² 2 min 255 W/m² 6,4 km/h (2 Bft) 95,74 %
19.04.2026 09:18 9,1 °C 16,7 °C 5,0 °C 97 % 1021,4 hPa 0,0 l/m² 2 min 365 W/m² 6,4 km/h (2 Bft) 95,74 %
19.04.2026 09:20 9,2 °C 16,7 °C 6,1 °C 97 % 1021,4 hPa 0,0 l/m² 2 min 371 W/m² 3,2 km/h (1 Bft) 97,87 %
19.04.2026 09:22 9,3 °C 17,8 °C 6,7 °C 97 % 1021,4 hPa 0,0 l/m² 2 min 377 W/m² 6,4 km/h (2 Bft) 95,74 %
19.04.2026 09:24 9,4 °C 17,8 °C 6,7 °C 97 % 1021,4 hPa 0,0 l/m² 2 min 383 W/m² 6,4 km/h (2 Bft) 94,00 %
19.04.2026 09:26 9,4 °C 17,2 °C 6,7 °C 97 % 1021,4 hPa 0,0 l/m² 2 min 392 W/m² 6,4 km/h (2 Bft) 97,83 %
19.04.2026 09:28 9,4 °C 16,7 °C 6,7 °C 97 % 1021,5 hPa 0,0 l/m² 2 min 399 W/m² 9,7 km/h (2 Bft) 100,00 %
19.04.2026 09:30 9,6 °C 17,8 °C 7,2 °C 96 % 1021,5 hPa 0,0 l/m² 2 min 406 W/m² 3,2 km/h (1 Bft) 97,87 %
19.04.2026 09:32 9,7 °C 18,9 °C 7,2 °C 96 % 1021,5 hPa 0,0 l/m² 2 min 412 W/m² 6,4 km/h (2 Bft) 100,00 %
19.04.2026 09:34 9,8 °C 17,8 °C 6,7 °C 96 % 1021,5 hPa 0,0 l/m² 2 min 421 W/m² 9,7 km/h (2 Bft) 100,00 %
19.04.2026 09:36 10,0 °C 18,9 °C 6,7 °C 96 % 1021,5 hPa 0,0 l/m² 2 min 429 W/m² 6,4 km/h (2 Bft) 100,00 %
19.04.2026 09:38 10,1 °C 20,0 °C 6,7 °C 96 % 1021,5 hPa 0,0 l/m² 2 min 434 W/m² 6,4 km/h (2 Bft) 97,87 %
19.04.2026 09:40 10,3 °C 20,0 °C 6,1 °C 95 % 1021,5 hPa 0,0 l/m² 2 min 438 W/m² 9,7 km/h (2 Bft) 100,00 %
19.04.2026 09:42 10,4 °C 18,3 °C 5,6 °C 95 % 1021,5 hPa 0,0 l/m² 2 min 446 W/m² 9,7 km/h (2 Bft) 100,00 %
19.04.2026 09:44 10,6 °C 19,4 °C 5,6 °C 95 % 1021,5 hPa 0,0 l/m² 2 min 451 W/m² 6,4 km/h (2 Bft) 100,00 %
19.04.2026 09:46 10,7 °C 19,4 °C 5,6 °C 94 % 1021,4 hPa 0,0 l/m² 2 min 458 W/m² 9,7 km/h (2 Bft) 100,00 %
19.04.2026 09:48 10,8 °C 19,4 °C 5,6 °C 94 % 1021,5 hPa 0,0 l/m² 2 min 466 W/m² 9,7 km/h (2 Bft) 97,87 %
19.04.2026 09:50 10,9 °C 18,9 °C 5,6 °C 93 % 1021,5 hPa 0,0 l/m² 2 min 470 W/m² 6,4 km/h (2 Bft) 97,37 %
19.04.2026 09:52 11,0 °C 18,9 °C 5,6 °C 92 % 1021,5 hPa 0,0 l/m² 2 min 477 W/m² 6,4 km/h (2 Bft) 100,00 %
19.04.2026 09:54 11,1 °C 17,8 °C 5,6 °C 92 % 1021,5 hPa 0,0 l/m² 2 min 485 W/m² 9,7 km/h (2 Bft) 100,00 %
19.04.2026 09:56 11,2 °C 16,1 °C 5,6 °C 92 % 1021,5 hPa 0,0 l/m² 2 min 487 W/m² 3,2 km/h (1 Bft) 100,00 %
19.04.2026 09:58 11,3 °C 15,0 °C 5,6 °C 91 % 1021,5 hPa 0,0 l/m² 2 min 494 W/m² 16,1 km/h (3 Bft) 100,00 %
19.04.2026 10:00 11,4 °C 14,4 °C 5,6 °C 90 % 1021,6 hPa 0,0 l/m² 2 min 500 W/m² 9,7 km/h (2 Bft) 97,87 %
19.04.2026 10:02 11,6 °C 15,0 °C 5,6 °C 90 % 1021,5 hPa 0,0 l/m² 2 min 509 W/m² 16,1 km/h (3 Bft) 100,00 %
19.04.2026 10:04 11,7 °C 15,0 °C 5,6 °C 89 % 1021,7 hPa 0,0 l/m² 2 min 518 W/m² 9,7 km/h (2 Bft) 97,87 %
19.04.2026 10:06 11,8 °C 16,1 °C 6,1 °C 89 % 1021,6 hPa 0,0 l/m² 2 min 514 W/m² 6,4 km/h (2 Bft) 100,00 %
19.04.2026 10:08 11,8 °C 15,6 °C 6,1 °C 88 % 1021,6 hPa 0,0 l/m² 2 min 525 W/m² 9,7 km/h (2 Bft) 100,00 %
19.04.2026 10:10 11,9 °C 15,0 °C 6,1 °C 87 % 1021,6 hPa 0,0 l/m² 2 min 504 W/m² 16,1 km/h (3 Bft) 100,00 %
19.04.2026 10:12 11,9 °C 15,0 °C 6,1 °C 87 % 1021,6 hPa 0,0 l/m² 2 min 536 W/m² 12,9 km/h (3 Bft) 100,00 %
19.04.2026 10:14 12,1 °C 14,4 °C 6,7 °C 86 % 1021,7 hPa 0,0 l/m² 2 min 546 W/m² 12,9 km/h (3 Bft) 100,00 %
19.04.2026 10:16 12,1 °C 13,9 °C 6,7 °C 86 % 1021,6 hPa 0,0 l/m² 2 min 512 W/m² 16,1 km/h (3 Bft) 100,00 %
19.04.2026 10:18 12,2 °C 14,4 °C 7,8 °C 85 % 1021,6 hPa 0,0 l/m² 2 min 545 W/m² 12,9 km/h (3 Bft) 100,00 %
19.04.2026 10:20 12,3 °C 16,1 °C 8,9 °C 85 % 1021,7 hPa 0,0 l/m² 2 min 557 W/m² 12,9 km/h (3 Bft) 100,00 %
19.04.2026 10:22 12,3 °C 17,2 °C 9,4 °C 84 % 1021,7 hPa 0,0 l/m² 2 min 561 W/m² 19,3 km/h (3 Bft) 100,00 %
19.04.2026 10:24 12,4 °C 17,2 °C 10,0 °C 83 % 1021,7 hPa 0,0 l/m² 2 min 574 W/m² 16,1 km/h (3 Bft) 100,00 %
19.04.2026 10:26 12,4 °C 17,8 °C 11,1 °C 83 % 1021,7 hPa 0,0 l/m² 2 min 580 W/m² 12,9 km/h (3 Bft) 100,00 %
19.04.2026 10:28 12,5 °C 17,8 °C 11,1 °C 83 % 1021,7 hPa 0,0 l/m² 2 min 579 W/m² 16,1 km/h (3 Bft) 100,00 %
19.04.2026 10:30 12,6 °C 17,2 °C 11,1 °C 82 % 1021,7 hPa 0,0 l/m² 2 min 581 W/m² 9,7 km/h (2 Bft) 97,87 %
19.04.2026 10:32 12,6 °C 16,7 °C 11,1 °C 82 % 1021,7 hPa 0,0 l/m² 2 min 584 W/m² 12,9 km/h (3 Bft) 100,00 %
19.04.2026 10:34 12,7 °C 16,1 °C 11,1 °C 81 % 1021,7 hPa 0,0 l/m² 2 min 591 W/m² 12,9 km/h (3 Bft) 100,00 %
19.04.2026 10:36 12,7 °C 15,6 °C 10,6 °C 81 % 1021,7 hPa 0,0 l/m² 2 min 596 W/m² 16,1 km/h (3 Bft) 97,87 %
19.04.2026 10:38 12,8 °C 15,0 °C 11,1 °C 80 % 1021,7 hPa 0,0 l/m² 2 min 608 W/m² 16,1 km/h (3 Bft) 97,87 %
19.04.2026 10:40 12,9 °C 15,0 °C 11,1 °C 80 % 1021,7 hPa 0,0 l/m² 2 min 618 W/m² 12,9 km/h (3 Bft) 97,87 %
19.04.2026 10:42 13,0 °C 15,6 °C 11,7 °C 80 % 1021,7 hPa 0,0 l/m² 2 min 621 W/m² 16,1 km/h (3 Bft) 95,74 %
19.04.2026 10:44 13,1 °C 17,8 °C 11,7 °C 79 % 1021,7 hPa 0,0 l/m² 2 min 621 W/m² 16,1 km/h (3 Bft) 97,87 %
19.04.2026 10:46 13,2 °C 19,4 °C 11,7 °C 79 % 1021,7 hPa 0,0 l/m² 2 min 625 W/m² 9,7 km/h (2 Bft) 95,74 %
19.04.2026 10:48 13,3 °C 20,0 °C 11,7 °C 79 % 1021,7 hPa 0,0 l/m² 2 min 642 W/m² 12,9 km/h (3 Bft) 97,83 %
19.04.2026 10:50 13,4 °C 19,4 °C 11,1 °C 78 % 1021,7 hPa 0,0 l/m² 2 min 670 W/m² 12,9 km/h (3 Bft) 97,87 %
19.04.2026 10:52 13,4 °C 17,2 °C 10,6 °C 77 % 1021,7 hPa 0,0 l/m² 2 min 454 W/m² 19,3 km/h (3 Bft) 97,87 %
19.04.2026 10:54 13,4 °C 16,1 °C 10,0 °C 77 % 1021,8 hPa 0,0 l/m² 2 min 412 W/m² 12,9 km/h (3 Bft) 97,87 %
19.04.2026 10:56 13,4 °C 15,6 °C 10,0 °C 77 % 1021,7 hPa 0,0 l/m² 2 min 640 W/m² 12,9 km/h (3 Bft) 97,87 %
19.04.2026 10:58 13,5 °C 16,1 °C 10,0 °C 77 % 1021,7 hPa 0,0 l/m² 2 min 540 W/m² 29,0 km/h (5 Bft) 100,00 %
19.04.2026 11:00 13,6 °C 16,7 °C 10,0 °C 76 % 1021,7 hPa 0,0 l/m² 2 min 706 W/m² 22,5 km/h (4 Bft) 97,87 %
19.04.2026 11:02 13,7 °C 16,7 °C 10,0 °C 76 % 1021,7 hPa 0,0 l/m² 2 min 712 W/m² 22,5 km/h (4 Bft) 96,15 %
19.04.2026 11:04 13,6 °C 15,6 °C 10,0 °C 75 % 1021,7 hPa 0,0 l/m² 2 min 712 W/m² 22,5 km/h (4 Bft) 97,87 %
19.04.2026 11:06 13,7 °C 15,6 °C 10,0 °C 75 % 1021,7 hPa 0,0 l/m² 2 min 732 W/m² 29,0 km/h (5 Bft) 97,87 %
19.04.2026 11:08 13,7 °C 15,6 °C 10,0 °C 75 % 1021,7 hPa 0,0 l/m² 2 min 756 W/m² 22,5 km/h (4 Bft) 97,87 %
19.04.2026 11:10 13,7 °C 15,6 °C 10,0 °C 74 % 1021,7 hPa 0,0 l/m² 2 min 358 W/m² 22,5 km/h (4 Bft) 95,74 %
19.04.2026 11:12 13,7 °C 15,6 °C 10,6 °C 74 % 1021,7 hPa 0,0 l/m² 2 min 759 W/m² 9,7 km/h (2 Bft) 95,74 %
19.04.2026 11:14 13,8 °C 16,7 °C 10,6 °C 74 % 1021,7 hPa 0,0 l/m² 2 min 792 W/m² 9,7 km/h (2 Bft) 97,78 %
19.04.2026 11:16 13,9 °C 18,3 °C 11,1 °C 75 % 1021,8 hPa 0,0 l/m² 2 min 824 W/m² 19,3 km/h (3 Bft) 95,74 %
19.04.2026 11:18 14,1 °C 19,4 °C 11,1 °C 75 % 1021,8 hPa 0,0 l/m² 2 min 842 W/m² 9,7 km/h (2 Bft) 97,83 %
19.04.2026 11:20 14,2 °C 20,6 °C 11,7 °C 73 % 1021,8 hPa 0,0 l/m² 2 min 838 W/m² 16,1 km/h (3 Bft) 98,00 %
19.04.2026 11:22 14,3 °C 20,0 °C 11,1 °C 73 % 1021,8 hPa 0,0 l/m² 2 min 791 W/m² 29,0 km/h (5 Bft) 97,87 %
19.04.2026 11:24 14,3 °C 20,0 °C 11,7 °C 73 % 1021,8 hPa 0,0 l/m² 2 min 870 W/m² 16,1 km/h (3 Bft) 97,87 %
19.04.2026 11:26 14,4 °C 19,4 °C 11,7 °C 72 % 1021,8 hPa 0,0 l/m² 2 min 870 W/m² 16,1 km/h (3 Bft) 97,37 %
19.04.2026 11:28 14,5 °C 18,3 °C 11,7 °C 72 % 1021,8 hPa 0,0 l/m² 2 min 860 W/m² 19,3 km/h (3 Bft) 97,87 %
19.04.2026 11:30 14,5 °C 17,2 °C 11,7 °C 71 % 1021,8 hPa 0,0 l/m² 2 min 378 W/m² 12,9 km/h (3 Bft) 97,87 %
19.04.2026 11:32 14,5 °C 16,7 °C 11,1 °C 71 % 1021,8 hPa 0,0 l/m² 0 min 315 W/m² 29,0 km/h (5 Bft) 97,87 %
19.04.2026 11:34 14,4 °C 16,1 °C 11,1 °C 71 % 1021,8 hPa 0,0 l/m² 0 min 279 W/m² 12,9 km/h (3 Bft) 97,87 %
19.04.2026 11:36 14,4 °C 15,6 °C 11,1 °C 71 % 1021,7 hPa 0,0 l/m² 0 min 319 W/m² 16,1 km/h (3 Bft) 97,87 %
19.04.2026 11:38 14,3 °C 15,6 °C 11,1 °C 71 % 1021,8 hPa 0,0 l/m² 0 min 298 W/m² 16,1 km/h (3 Bft) 95,65 %
19.04.2026 11:40 14,3 °C 15,0 °C 10,6 °C 71 % 1021,7 hPa 0,0 l/m² 0 min 285 W/m² 16,1 km/h (3 Bft) 98,00 %
19.04.2026 11:42 14,1 °C 15,0 °C 10,6 °C 71 % 1021,7 hPa 0,0 l/m² 0 min 262 W/m² 19,3 km/h (3 Bft) 97,87 %
19.04.2026 11:44 14,0 °C 14,4 °C 10,6 °C 71 % 1021,7 hPa 0,0 l/m² 0 min 207 W/m² 9,7 km/h (2 Bft) 95,74 %
19.04.2026 11:46 13,8 °C 14,4 °C 10,0 °C 70 % 1021,7 hPa 0,0 l/m² 0 min 175 W/m² 9,7 km/h (2 Bft) 97,87 %
19.04.2026 11:48 13,8 °C 13,9 °C 10,0 °C 71 % 1021,7 hPa 0,0 l/m² 0 min 160 W/m² 9,7 km/h (2 Bft) 97,87 %
19.04.2026 11:50 13,8 °C 13,9 °C 10,0 °C 71 % 1021,7 hPa 0,0 l/m² 0 min 157 W/m² 12,9 km/h (3 Bft) 97,87 %
19.04.2026 11:52 13,7 °C 13,9 °C 10,0 °C 72 % 1021,7 hPa 0,0 l/m² 0 min 148 W/m² 19,3 km/h (3 Bft) 100,00 %
19.04.2026 11:54 13,7 °C 13,3 °C 10,0 °C 71 % 1021,8 hPa 0,0 l/m² 0 min 127 W/m² 19,3 km/h (3 Bft) 100,00 %
19.04.2026 11:56 13,6 °C 13,3 °C 9,4 °C 71 % 1021,8 hPa 0,0 l/m² 0 min 120 W/m² 12,9 km/h (3 Bft) 100,00 %
19.04.2026 11:58 13,6 °C 13,3 °C 9,4 °C 71 % 1021,8 hPa 0,0 l/m² 0 min 128 W/m² 19,3 km/h (3 Bft) 100,00 %
19.04.2026 12:00 13,6 °C 13,3 °C 9,4 °C 71 % 1021,8 hPa 0,0 l/m² 0 min 150 W/m² 12,9 km/h (3 Bft) 100,00 %
19.04.2026 12:02 13,5 °C 16,1 °C 10,6 °C 72 % 1021,7 hPa 0,0 l/m² 0 min 212 W/m² 22,5 km/h (4 Bft) 100,00 %
19.04.2026 12:04 13,6 °C 18,3 °C 11,1 °C 72 % 1021,7 hPa 0,0 l/m² 0 min 213 W/m² 12,9 km/h (3 Bft) 100,00 %
19.04.2026 12:08 13,9 °C 23,3 °C 13,3 °C 73 % 1021,7 hPa 0,0 l/m² 2 min 813 W/m² 12,9 km/h (3 Bft) 100,00 %
19.04.2026 12:10 14,3 °C 25,0 °C 14,4 °C 74 % 1021,6 hPa 0,0 l/m² 2 min 951 W/m² 19,3 km/h (3 Bft) 100,00 %
19.04.2026 12:12 14,6 °C 25,6 °C 15,6 °C 72 % 1021,6 hPa 0,0 l/m² 2 min 1003 W/m² 16,1 km/h (3 Bft) 97,96 %
19.04.2026 12:14 14,8 °C 21,7 °C 14,4 °C 69 % 1021,6 hPa 0,0 l/m² 2 min 725 W/m² 22,5 km/h (4 Bft) 100,00 %
19.04.2026 12:16 14,8 °C 19,4 °C 13,9 °C 68 % 1021,6 hPa 0,0 l/m² 0 min 311 W/m² 19,3 km/h (3 Bft) 100,00 %
19.04.2026 12:18 14,8 °C 17,8 °C 12,8 °C 68 % 1021,6 hPa 0,0 l/m² 0 min 324 W/m² 16,1 km/h (3 Bft) 100,00 %
19.04.2026 12:20 14,8 °C 17,2 °C 12,8 °C 69 % 1021,7 hPa 0,0 l/m² 2 min 401 W/m² 12,9 km/h (3 Bft) 100,00 %
19.04.2026 12:22 14,7 °C 18,3 °C 13,3 °C 69 % 1021,7 hPa 0,0 l/m² 0 min 304 W/m² 22,5 km/h (4 Bft) 97,87 %
19.04.2026 12:24 14,7 °C 18,3 °C 13,9 °C 69 % 1021,7 hPa 0,0 l/m² 0 min 299 W/m² 19,3 km/h (3 Bft) 100,00 %
19.04.2026 12:26 14,8 °C 18,3 °C 13,9 °C 70 % 1021,6 hPa 0,0 l/m² 0 min 292 W/m² 16,1 km/h (3 Bft) 100,00 %
19.04.2026 12:28 14,8 °C 16,7 °C 12,8 °C 69 % 1021,7 hPa 0,0 l/m² 0 min 251 W/m² 19,3 km/h (3 Bft) 100,00 %
19.04.2026 12:30 14,8 °C 16,7 °C 12,2 °C 69 % 1021,6 hPa 0,0 l/m² 0 min 240 W/m² 16,1 km/h (3 Bft) 100,00 %
19.04.2026 12:32 14,7 °C 16,7 °C 12,2 °C 67 % 1021,6 hPa 0,0 l/m² 0 min 263 W/m² 19,3 km/h (3 Bft) 100,00 %
19.04.2026 12:34 14,7 °C 18,9 °C 13,3 °C 68 % 1021,6 hPa 0,0 l/m² 0 min 251 W/m² 25,7 km/h (4 Bft) 100,00 %
19.04.2026 12:36 14,8 °C 22,2 °C 15,6 °C 68 % 1021,6 hPa 0,0 l/m² 2 min 693 W/m² 22,5 km/h (4 Bft) 100,00 %
19.04.2026 12:38 14,9 °C 23,9 °C 17,2 °C 68 % 1021,6 hPa 0,0 l/m² 2 min 863 W/m² 22,5 km/h (4 Bft) 100,00 %
19.04.2026 12:40 15,2 °C 25,6 °C 18,3 °C 69 % 1021,6 hPa 0,0 l/m² 2 min 882 W/m² 12,9 km/h (3 Bft) 97,87 %
19.04.2026 12:42 15,4 °C 26,7 °C 19,4 °C 68 % 1021,5 hPa 0,0 l/m² 2 min 938 W/m² 12,9 km/h (3 Bft) 100,00 %
19.04.2026 12:44 15,6 °C 23,9 °C 18,9 °C 64 % 1021,5 hPa 0,0 l/m² 2 min 985 W/m² 12,9 km/h (3 Bft) 100,00 %
19.04.2026 12:46 15,6 °C 20,6 °C 16,7 °C 64 % 1021,5 hPa 0,0 l/m² 0 min 291 W/m² 16,1 km/h (3 Bft) 97,87 %
19.04.2026 12:48 15,6 °C 18,3 °C 15,6 °C 64 % 1021,6 hPa 0,0 l/m² 0 min 282 W/m² 25,7 km/h (4 Bft) 100,00 %
19.04.2026 12:50 15,5 °C 16,7 °C 13,9 °C 63 % 1021,6 hPa 0,0 l/m² 0 min 197 W/m² 19,3 km/h (3 Bft) 100,00 %
19.04.2026 12:52 15,3 °C 16,1 °C 12,8 °C 62 % 1021,6 hPa 0,0 l/m² 0 min 160 W/m² 29,0 km/h (5 Bft) 100,00 %
19.04.2026 12:54 15,2 °C 17,2 °C 12,8 °C 62 % 1021,5 hPa 0,0 l/m² 0 min 193 W/m² 22,5 km/h (4 Bft) 100,00 %
19.04.2026 12:56 15,2 °C 17,8 °C 13,9 °C 63 % 1021,5 hPa 0,0 l/m² 0 min 193 W/m² 19,3 km/h (3 Bft) 100,00 %
19.04.2026 12:58 15,2 °C 21,1 °C 15,6 °C 65 % 1021,5 hPa 0,0 l/m² 0 min 337 W/m² 12,9 km/h (3 Bft) 100,00 %
19.04.2026 13:00 15,3 °C 22,2 °C 16,7 °C 65 % 1021,5 hPa 0,0 l/m² 2 min 1003 W/m² 12,9 km/h (3 Bft) 97,96 %
19.04.2026 13:02 15,5 °C 21,7 °C 16,7 °C 64 % 1021,4 hPa 0,0 l/m² 2 min 1042 W/m² 22,5 km/h (4 Bft) 97,87 %
19.04.2026 13:04 15,7 °C 22,2 °C 17,2 °C 65 % 1021,4 hPa 0,0 l/m² 2 min 769 W/m² 9,7 km/h (2 Bft) 96,00 %
19.04.2026 13:06 15,9 °C 22,2 °C 16,7 °C 66 % 1021,5 hPa 0,0 l/m² 2 min 770 W/m² 32,2 km/h (5 Bft) 95,74 %
19.04.2026 13:08 16,0 °C 20,6 °C 15,6 °C 63 % 1021,4 hPa 0,0 l/m² 2 min 774 W/m² 19,3 km/h (3 Bft) 97,37 %
19.04.2026 13:10 16,1 °C 19,4 °C 15,0 °C 64 % 1021,4 hPa 0,0 l/m² 0 min 339 W/m² 19,3 km/h (3 Bft) 96,43 %
19.04.2026 13:12 16,1 °C 17,8 °C 13,9 °C 64 % 1021,5 hPa 0,0 l/m² 0 min 270 W/m² 22,5 km/h (4 Bft) 95,74 %
19.04.2026 13:14 15,9 °C 16,7 °C 13,3 °C 65 % 1021,6 hPa 0,0 l/m² 0 min 264 W/m² 12,9 km/h (3 Bft) 97,83 %
19.04.2026 13:16 15,7 °C 16,1 °C 12,8 °C 65 % 1021,5 hPa 0,0 l/m² 0 min 295 W/m² 22,5 km/h (4 Bft) 98,00 %
19.04.2026 13:18 15,5 °C 16,7 °C 12,8 °C 65 % 1021,6 hPa 0,0 l/m² 0 min 308 W/m² 16,1 km/h (3 Bft) 93,62 %
19.04.2026 13:20 15,3 °C 15,6 °C 12,2 °C 65 % 1021,6 hPa 0,0 l/m² 0 min 239 W/m² 16,1 km/h (3 Bft) 93,62 %
19.04.2026 13:22 15,1 °C 15,0 °C 11,7 °C 65 % 1021,5 hPa 0,0 l/m² 0 min 143 W/m² 12,9 km/h (3 Bft) 97,37 %
19.04.2026 13:24 15,0 °C 15,0 °C 11,7 °C 66 % 1021,6 hPa 0,0 l/m² 0 min 112 W/m² 12,9 km/h (3 Bft) 91,49 %
19.04.2026 13:26 14,8 °C 14,4 °C 10,6 °C 67 % 1021,9 hPa 0,0 l/m² 0 min 131 W/m² 48,3 km/h (6 Bft) 95,74 %
19.04.2026 13:28 14,6 °C 13,9 °C 10,6 °C 68 % 1022,0 hPa 0,0 l/m² 0 min 195 W/m² 29,0 km/h (5 Bft) 96,00 %
19.04.2026 13:30 14,3 °C 13,9 °C 10,0 °C 68 % 1022,2 hPa 0,0 l/m² 0 min 210 W/m² 35,4 km/h (5 Bft) 95,92 %
19.04.2026 13:32 13,9 °C 13,3 °C 10,0 °C 68 % 1022,2 hPa 0,0 l/m² 0 min 170 W/m² 35,4 km/h (5 Bft) 97,87 %
19.04.2026 13:34 13,5 °C 12,8 °C 9,4 °C 67 % 1022,3 hPa 0,0 l/m² 0 min 108 W/m² 38,6 km/h (5 Bft) 95,74 %
19.04.2026 13:36 13,2 °C 12,2 °C 8,9 °C 68 % 1022,4 hPa 0,0 l/m² 0 min 75 W/m² 32,2 km/h (5 Bft) 95,74 %
19.04.2026 13:38 13,0 °C 12,2 °C 8,9 °C 69 % 1022,2 hPa 0,0 l/m² 0 min 88 W/m² 16,1 km/h (3 Bft) 93,62 %
19.04.2026 13:40 12,7 °C 12,2 °C 8,9 °C 70 % 1022,3 hPa 0,0 l/m² 0 min 120 W/m² 16,1 km/h (3 Bft) 96,00 %
19.04.2026 13:42 12,6 °C 12,2 °C 8,3 °C 72 % 1022,2 hPa 0,0 l/m² 0 min 157 W/m² 19,3 km/h (3 Bft) 94,74 %
19.04.2026 13:44 12,4 °C 12,2 °C 8,9 °C 73 % 1022,2 hPa 0,0 l/m² 0 min 203 W/m² 19,3 km/h (3 Bft) 97,87 %
19.04.2026 13:46 12,3 °C 12,2 °C 8,3 °C 74 % 1022,0 hPa 0,0 l/m² 0 min 242 W/m² 25,7 km/h (4 Bft) 97,96 %
19.04.2026 13:48 12,2 °C 12,2 °C 8,3 °C 76 % 1022,0 hPa 0,0 l/m² 0 min 300 W/m² 19,3 km/h (3 Bft) 98,11 %
19.04.2026 13:50 12,2 °C 13,9 °C 8,3 °C 78 % 1022,0 hPa 0,0 l/m² 2 min 406 W/m² 19,3 km/h (3 Bft) 94,29 %
19.04.2026 13:52 12,3 °C 13,9 °C 8,9 °C 79 % 1022,1 hPa 0,0 l/m² 0 min 311 W/m² 12,9 km/h (3 Bft) 100,00 %
19.04.2026 13:54 12,3 °C 13,3 °C 8,9 °C 80 % 1022,0 hPa 0,0 l/m² 0 min 240 W/m² 19,3 km/h (3 Bft) 100,00 %
19.04.2026 13:56 12,3 °C 13,3 °C 8,9 °C 80 % 1022,0 hPa 0,0 l/m² 0 min 198 W/m² 16,1 km/h (3 Bft) 97,14 %
19.04.2026 13:58 12,3 °C 13,3 °C 8,9 °C 79 % 1022,0 hPa 0,0 l/m² 0 min 192 W/m² 12,9 km/h (3 Bft) 100,00 %
19.04.2026 14:00 12,3 °C 12,8 °C 8,9 °C 80 % 1022,1 hPa 0,0 l/m² 0 min 189 W/m² 16,1 km/h (3 Bft) 100,00 %
19.04.2026 14:02 12,3 °C 12,8 °C 8,9 °C 80 % 1022,1 hPa 0,0 l/m² 0 min 175 W/m² 19,3 km/h (3 Bft) 98,08 %
19.04.2026 14:04 12,3 °C 12,8 °C 8,9 °C 79 % 1022,0 hPa 0,0 l/m² 0 min 171 W/m² 9,7 km/h (2 Bft) 100,00 %
19.04.2026 14:06 12,3 °C 12,8 °C 8,9 °C 79 % 1022,1 hPa 0,0 l/m² 0 min 184 W/m² 12,9 km/h (3 Bft) 97,87 %
19.04.2026 14:08 12,3 °C 13,3 °C 9,4 °C 79 % 1022,1 hPa 0,0 l/m² 0 min 221 W/m² 12,9 km/h (3 Bft) 97,87 %
19.04.2026 14:10 12,3 °C 14,4 °C 9,4 °C 79 % 1022,1 hPa 0,0 l/m² 0 min 229 W/m² 9,7 km/h (2 Bft) 100,00 %
19.04.2026 14:12 12,4 °C 17,2 °C 9,4 °C 79 % 1022,1 hPa 0,0 l/m² 2 min 412 W/m² 12,9 km/h (3 Bft) 100,00 %
19.04.2026 14:14 12,6 °C 20,0 °C 10,0 °C 79 % 1022,1 hPa 0,0 l/m² 2 min 719 W/m² 16,1 km/h (3 Bft) 100,00 %
19.04.2026 14:16 12,8 °C 22,2 °C 10,6 °C 79 % 1022,1 hPa 0,0 l/m² 2 min 883 W/m² 16,1 km/h (3 Bft) 97,83 %
19.04.2026 14:18 13,1 °C 23,9 °C 10,6 °C 79 % 1022,1 hPa 0,0 l/m² 2 min 892 W/m² 12,9 km/h (3 Bft) 100,00 %
19.04.2026 14:20 13,4 °C 25,0 °C 10,6 °C 77 % 1022,0 hPa 0,0 l/m² 2 min 911 W/m² 9,7 km/h (2 Bft) 100,00 %
19.04.2026 14:22 13,8 °C 24,4 °C 11,1 °C 75 % 1022,0 hPa 0,0 l/m² 2 min 916 W/m² 19,3 km/h (3 Bft) 100,00 %
19.04.2026 14:24 14,2 °C 23,9 °C 11,1 °C 73 % 1022,0 hPa 0,0 l/m² 2 min 912 W/m² 12,9 km/h (3 Bft) 97,87 %
19.04.2026 14:26 14,3 °C 25,0 °C 11,1 °C 73 % 1022,0 hPa 0,0 l/m² 2 min 852 W/m² 9,7 km/h (2 Bft) 96,00 %
19.04.2026 14:28 14,7 °C 23,9 °C 11,1 °C 73 % 1022,0 hPa 0,0 l/m² 2 min 837 W/m² 6,4 km/h (2 Bft) 98,00 %
19.04.2026 14:30 15,0 °C 23,3 °C 11,1 °C 71 % 1022,1 hPa 0,0 l/m² 2 min 837 W/m² 12,9 km/h (3 Bft) 94,74 %
19.04.2026 14:32 15,1 °C 21,1 °C 11,1 °C 70 % 1022,0 hPa 0,0 l/m² 2 min 746 W/m² 19,3 km/h (3 Bft) 93,62 %
19.04.2026 14:34 15,2 °C 19,4 °C 11,1 °C 69 % 1021,9 hPa 0,0 l/m² 0 min 254 W/m² 19,3 km/h (3 Bft) 98,08 %
19.04.2026 14:36 15,2 °C 17,8 °C 11,1 °C 70 % 1021,9 hPa 0,0 l/m² 0 min 161 W/m² 16,1 km/h (3 Bft) 97,87 %
19.04.2026 14:38 15,2 °C 16,7 °C 11,1 °C 70 % 1022,0 hPa 0,0 l/m² 0 min 118 W/m² 22,5 km/h (4 Bft) 96,00 %
19.04.2026 14:40 15,2 °C 16,1 °C 10,6 °C 70 % 1021,9 hPa 0,0 l/m² 0 min 108 W/m² 16,1 km/h (3 Bft) 97,87 %
19.04.2026 14:42 15,1 °C 15,0 °C 10,6 °C 71 % 1022,0 hPa 0,0 l/m² 0 min 143 W/m² 19,3 km/h (3 Bft) 97,56 %
19.04.2026 14:44 14,9 °C 15,0 °C 10,6 °C 72 % 1022,0 hPa 0,0 l/m² 0 min 224 W/m² 25,7 km/h (4 Bft) 98,00 %
19.04.2026 14:46 14,8 °C 16,1 °C 10,6 °C 72 % 1022,1 hPa 0,0 l/m² 2 min 430 W/m² 16,1 km/h (3 Bft) 97,62 %
19.04.2026 14:48 14,7 °C 17,2 °C 11,1 °C 72 % 1022,1 hPa 0,0 l/m² 2 min 615 W/m² 16,1 km/h (3 Bft) 95,74 %
19.04.2026 14:50 14,7 °C 18,9 °C 11,1 °C 71 % 1022,1 hPa 0,0 l/m² 2 min 622 W/m² 25,7 km/h (4 Bft) 97,96 %
19.04.2026 14:52 14,8 °C 20,0 °C 11,7 °C 70 % 1022,0 hPa 0,0 l/m² 2 min 727 W/m² 12,9 km/h (3 Bft) 98,00 %
19.04.2026 14:54 15,0 °C 21,1 °C 12,2 °C 69 % 1022,0 hPa 0,0 l/m² 2 min 816 W/m² 19,3 km/h (3 Bft) 95,74 %
19.04.2026 14:56 15,1 °C 19,4 °C 12,2 °C 68 % 1022,1 hPa 0,0 l/m² 2 min 679 W/m² 22,5 km/h (4 Bft) 97,87 %
19.04.2026 14:58 15,2 °C 20,0 °C 11,7 °C 66 % 1022,0 hPa 0,0 l/m² 2 min 411 W/m² 16,1 km/h (3 Bft) 95,74 %
19.04.2026 15:00 15,3 °C 18,9 °C 11,7 °C 67 % 1021,9 hPa 0,0 l/m² 2 min 423 W/m² 16,1 km/h (3 Bft) 97,87 %
19.04.2026 15:02 15,3 °C 20,0 °C 11,7 °C 66 % 1021,9 hPa 0,0 l/m² 2 min 404 W/m² 19,3 km/h (3 Bft) 95,74 %
19.04.2026 15:04 15,5 °C 22,2 °C 12,2 °C 66 % 1021,9 hPa 0,0 l/m² 2 min 404 W/m² 9,7 km/h (2 Bft) 95,74 %
19.04.2026 15:06 15,7 °C 23,3 °C 12,2 °C 66 % 1021,9 hPa 0,0 l/m² 2 min 714 W/m² 12,9 km/h (3 Bft) 97,83 %
19.04.2026 15:08 15,9 °C 22,2 °C 12,2 °C 66 % 1021,8 hPa 0,0 l/m² 2 min 971 W/m² 16,1 km/h (3 Bft) 97,87 %
19.04.2026 15:10 16,0 °C 21,1 °C 12,2 °C 65 % 1021,8 hPa 0,0 l/m² 2 min 598 W/m² 12,9 km/h (3 Bft) 94,74 %
19.04.2026 15:12 16,1 °C 21,7 °C 12,2 °C 66 % 1021,8 hPa 0,0 l/m² 2 min 526 W/m² 12,9 km/h (3 Bft) 95,74 %
19.04.2026 15:14 16,3 °C 22,2 °C 12,8 °C 67 % 1021,8 hPa 0,0 l/m² 2 min 768 W/m² 12,9 km/h (3 Bft) 95,74 %
19.04.2026 15:16 16,3 °C 20,0 °C 12,8 °C 66 % 1021,7 hPa 0,0 l/m² 2 min 626 W/m² 16,1 km/h (3 Bft) 97,87 %
19.04.2026 15:18 16,2 °C 18,9 °C 12,8 °C 66 % 1021,7 hPa 0,0 l/m² 0 min 263 W/m² 19,3 km/h (3 Bft) 93,62 %
19.04.2026 15:20 16,1 °C 17,2 °C 12,2 °C 66 % 1021,7 hPa 0,0 l/m² 0 min 271 W/m² 16,1 km/h (3 Bft) 94,00 %
19.04.2026 15:22 16,1 °C 17,2 °C 12,2 °C 67 % 1021,7 hPa 0,0 l/m² 0 min 260 W/m² 9,7 km/h (2 Bft) 95,74 %
19.04.2026 15:24 16,0 °C 16,7 °C 12,2 °C 68 % 1021,7 hPa 0,0 l/m² 0 min 266 W/m² 9,7 km/h (2 Bft) 95,65 %
19.04.2026 15:26 15,9 °C 16,7 °C 12,2 °C 68 % 1021,7 hPa 0,0 l/m² 0 min 281 W/m² 12,9 km/h (3 Bft) 94,00 %
19.04.2026 15:28 15,8 °C 16,7 °C 11,7 °C 68 % 1021,7 hPa 0,0 l/m² 0 min 309 W/m² 16,1 km/h (3 Bft) 95,74 %
19.04.2026 15:30 15,7 °C 16,7 °C 12,2 °C 68 % 1021,7 hPa 0,0 l/m² 2 min 340 W/m² 22,5 km/h (4 Bft) 96,00 %
19.04.2026 15:32 15,7 °C 16,7 °C 11,7 °C 66 % 1021,7 hPa 0,0 l/m² 2 min 365 W/m² 22,5 km/h (4 Bft) 95,74 %
19.04.2026 15:34 15,7 °C 17,2 °C 12,2 °C 66 % 1021,6 hPa 0,0 l/m² 2 min 381 W/m² 25,7 km/h (4 Bft) 97,87 %
19.04.2026 15:36 15,7 °C 17,8 °C 12,2 °C 67 % 1021,6 hPa 0,0 l/m² 2 min 456 W/m² 16,1 km/h (3 Bft) 97,37 %
19.04.2026 15:38 15,7 °C 18,3 °C 12,2 °C 67 % 1021,6 hPa 0,0 l/m² 2 min 492 W/m² 32,2 km/h (5 Bft) 95,74 %
19.04.2026 15:40 15,8 °C 20,0 °C 12,8 °C 67 % 1021,5 hPa 0,0 l/m² 2 min 492 W/m² 25,7 km/h (4 Bft) 97,87 %
19.04.2026 15:42 15,9 °C 21,1 °C 13,3 °C 66 % 1021,5 hPa 0,0 l/m² 2 min 614 W/m² 19,3 km/h (3 Bft) 97,96 %
19.04.2026 15:44 16,1 °C 21,7 °C 13,3 °C 63 % 1021,5 hPa 0,0 l/m² 2 min 589 W/m² 22,5 km/h (4 Bft) 97,87 %
19.04.2026 15:46 16,3 °C 23,3 °C 13,9 °C 63 % 1021,5 hPa 0,0 l/m² 2 min 726 W/m² 16,1 km/h (3 Bft) 95,74 %
19.04.2026 15:48 16,6 °C 22,8 °C 13,9 °C 62 % 1021,5 hPa 0,0 l/m² 2 min 881 W/m² 25,7 km/h (4 Bft) 95,74 %
19.04.2026 15:50 16,8 °C 23,3 °C 13,9 °C 62 % 1021,5 hPa 0,0 l/m² 2 min 842 W/m² 41,8 km/h (6 Bft) 97,87 %
19.04.2026 15:52 16,9 °C 23,3 °C 13,9 °C 61 % 1021,5 hPa 0,0 l/m² 2 min 799 W/m² 25,7 km/h (4 Bft) 97,78 %
19.04.2026 15:54 17,0 °C 23,3 °C 13,9 °C 60 % 1021,5 hPa 0,0 l/m² 2 min 783 W/m² 32,2 km/h (5 Bft) 97,87 %
19.04.2026 15:56 16,9 °C 21,7 °C 13,3 °C 61 % 1021,4 hPa 0,0 l/m² 2 min 775 W/m² 32,2 km/h (5 Bft) 97,87 %
19.04.2026 15:58 16,9 °C 22,2 °C 13,3 °C 61 % 1021,4 hPa 0,0 l/m² 2 min 711 W/m² 29,0 km/h (5 Bft) 95,74 %
19.04.2026 16:00 16,9 °C 20,6 °C 13,3 °C 60 % 1021,4 hPa 0,0 l/m² 2 min 350 W/m² 25,7 km/h (4 Bft) 95,65 %
19.04.2026 16:02 16,8 °C 21,7 °C 13,3 °C 60 % 1021,4 hPa 0,0 l/m² 2 min 382 W/m² 29,0 km/h (5 Bft) 97,87 %
19.04.2026 16:04 16,8 °C 22,8 °C 13,3 °C 60 % 1021,4 hPa 0,0 l/m² 2 min 740 W/m² 25,7 km/h (4 Bft) 95,74 %
19.04.2026 16:06 16,9 °C 22,8 °C 13,9 °C 60 % 1021,4 hPa 0,0 l/m² 2 min 707 W/m² 25,7 km/h (4 Bft) 97,87 %
19.04.2026 16:08 17,1 °C 22,8 °C 13,9 °C 58 % 1021,4 hPa 0,0 l/m² 2 min 713 W/m² 41,8 km/h (6 Bft) 98,00 %
19.04.2026 16:10 17,1 °C 22,2 °C 13,9 °C 58 % 1021,3 hPa 0,0 l/m² 2 min 735 W/m² 29,0 km/h (5 Bft) 95,24 %
19.04.2026 16:12 17,2 °C 20,0 °C 13,3 °C 58 % 1021,3 hPa 0,0 l/m² 2 min 369 W/m² 35,4 km/h (5 Bft) 97,87 %
19.04.2026 16:14 17,1 °C 19,4 °C 13,3 °C 57 % 1021,3 hPa 0,0 l/m² 0 min 205 W/m² 35,4 km/h (5 Bft) 97,87 %
19.04.2026 16:16 17,0 °C 21,1 °C 13,3 °C 58 % 1021,3 hPa 0,0 l/m² 2 min 473 W/m² 29,0 km/h (5 Bft) 93,48 %
19.04.2026 16:18 16,9 °C 22,2 °C 13,3 °C 58 % 1021,2 hPa 0,0 l/m² 2 min 686 W/m² 29,0 km/h (5 Bft) 96,00 %
19.04.2026 16:20 17,0 °C 22,2 °C 13,3 °C 59 % 1021,2 hPa 0,0 l/m² 2 min 697 W/m² 16,1 km/h (3 Bft) 97,87 %
19.04.2026 16:22 17,1 °C 21,1 °C 13,3 °C 59 % 1021,3 hPa 0,0 l/m² 2 min 710 W/m² 22,5 km/h (4 Bft) 95,74 %
19.04.2026 16:24 17,1 °C 21,1 °C 13,3 °C 59 % 1021,3 hPa 0,0 l/m² 2 min 752 W/m² 22,5 km/h (4 Bft) 97,87 %
19.04.2026 16:26 17,1 °C 20,6 °C 13,3 °C 57 % 1021,3 hPa 0,0 l/m² 2 min 335 W/m² 35,4 km/h (5 Bft) 98,00 %
19.04.2026 16:28 17,0 °C 19,4 °C 13,3 °C 56 % 1021,3 hPa 0,0 l/m² 2 min 302 W/m² 32,2 km/h (5 Bft) 97,87 %
19.04.2026 16:30 16,8 °C 17,8 °C 12,8 °C 55 % 1021,4 hPa 0,0 l/m² 0 min 140 W/m² 29,0 km/h (5 Bft) 95,65 %
19.04.2026 16:32 16,6 °C 17,2 °C 12,2 °C 55 % 1021,3 hPa 0,0 l/m² 0 min 140 W/m² 19,3 km/h (3 Bft) 95,74 %
19.04.2026 16:34 16,4 °C 18,9 °C 12,2 °C 56 % 1021,3 hPa 0,0 l/m² 0 min 215 W/m² 16,1 km/h (3 Bft) 95,74 %
19.04.2026 16:36 16,4 °C 20,0 °C 12,8 °C 56 % 1021,3 hPa 0,0 l/m² 2 min 653 W/m² 22,5 km/h (4 Bft) 97,87 %
19.04.2026 16:38 16,4 °C 21,1 °C 12,8 °C 57 % 1021,3 hPa 0,0 l/m² 2 min 627 W/m² 19,3 km/h (3 Bft) 100,00 %
19.04.2026 16:40 16,6 °C 22,2 °C 13,3 °C 57 % 1021,3 hPa 0,0 l/m² 2 min 624 W/m² 32,2 km/h (5 Bft) 97,87 %
19.04.2026 16:42 16,7 °C 22,2 °C 13,3 °C 56 % 1021,3 hPa 0,0 l/m² 2 min 632 W/m² 32,2 km/h (5 Bft) 100,00 %
19.04.2026 16:44 16,8 °C 22,2 °C 13,9 °C 56 % 1021,3 hPa 0,0 l/m² 2 min 646 W/m² 29,0 km/h (5 Bft) 97,62 %
19.04.2026 16:46 17,0 °C 22,2 °C 13,9 °C 57 % 1021,3 hPa 0,0 l/m² 2 min 666 W/m² 29,0 km/h (5 Bft) 97,37 %
19.04.2026 16:48 17,2 °C 22,8 °C 13,9 °C 57 % 1021,3 hPa 0,0 l/m² 2 min 702 W/m² 22,5 km/h (4 Bft) 100,00 %
19.04.2026 16:50 17,3 °C 23,3 °C 14,4 °C 57 % 1021,3 hPa 0,0 l/m² 2 min 708 W/m² 29,0 km/h (5 Bft) 100,00 %
19.04.2026 16:52 17,4 °C 23,3 °C 14,4 °C 57 % 1021,3 hPa 0,0 l/m² 2 min 689 W/m² 19,3 km/h (3 Bft) 97,83 %
19.04.2026 16:54 17,5 °C 21,7 °C 14,4 °C 55 % 1021,3 hPa 0,0 l/m² 2 min 424 W/m² 35,4 km/h (5 Bft) 100,00 %
19.04.2026 16:56 17,3 °C 20,0 °C 13,9 °C 56 % 1021,3 hPa 0,0 l/m² 0 min 168 W/m² 16,1 km/h (3 Bft) 100,00 %
19.04.2026 16:58 17,2 °C 18,3 °C 13,3 °C 56 % 1021,4 hPa 0,0 l/m² 0 min 136 W/m² 32,2 km/h (5 Bft) 98,00 %
19.04.2026 17:00 16,9 °C 17,2 °C 12,8 °C 55 % 1021,3 hPa 0,0 l/m² 0 min 127 W/m² 32,2 km/h (5 Bft) 100,00 %
19.04.2026 17:02 16,7 °C 16,7 °C 12,2 °C 55 % 1021,4 hPa 0,0 l/m² 0 min 118 W/m² 22,5 km/h (4 Bft) 98,00 %
19.04.2026 17:04 16,4 °C 16,7 °C 12,2 °C 56 % 1021,3 hPa 0,0 l/m² 0 min 176 W/m² 35,4 km/h (5 Bft) 97,83 %
19.04.2026 17:06 16,3 °C 18,9 °C 12,2 °C 57 % 1021,3 hPa 0,0 l/m² 2 min 321 W/m² 22,5 km/h (4 Bft) 100,00 %
19.04.2026 17:08 16,3 °C 20,0 °C 12,8 °C 56 % 1021,3 hPa 0,0 l/m² 2 min 554 W/m² 22,5 km/h (4 Bft) 100,00 %
19.04.2026 17:10 16,3 °C 20,6 °C 12,8 °C 56 % 1021,3 hPa 0,0 l/m² 2 min 542 W/m² 19,3 km/h (3 Bft) 97,87 %
19.04.2026 17:12 16,4 °C 21,7 °C 13,3 °C 56 % 1021,3 hPa 0,0 l/m² 2 min 535 W/m² 29,0 km/h (5 Bft) 97,56 %
19.04.2026 17:14 16,6 °C 22,2 °C 13,9 °C 57 % 1021,3 hPa 0,0 l/m² 2 min 537 W/m² 19,3 km/h (3 Bft) 100,00 %
19.04.2026 17:16 16,8 °C 22,2 °C 13,9 °C 57 % 1021,3 hPa 0,0 l/m² 2 min 554 W/m² 16,1 km/h (3 Bft) 96,00 %
19.04.2026 17:18 16,9 °C 22,2 °C 13,9 °C 56 % 1021,2 hPa 0,0 l/m² 2 min 583 W/m² 35,4 km/h (5 Bft) 97,96 %
19.04.2026 17:20 17,1 °C 22,2 °C 14,4 °C 57 % 1021,3 hPa 0,0 l/m² 2 min 593 W/m² 22,5 km/h (4 Bft) 97,87 %
19.04.2026 17:22 17,2 °C 20,6 °C 13,9 °C 55 % 1021,4 hPa 0,0 l/m² 2 min 594 W/m² 35,4 km/h (5 Bft) 95,74 %
19.04.2026 17:24 17,2 °C 21,1 °C 13,9 °C 54 % 1021,4 hPa 0,0 l/m² 2 min 538 W/m² 25,7 km/h (4 Bft) 95,74 %
19.04.2026 17:26 17,1 °C 20,0 °C 13,9 °C 54 % 1021,4 hPa 0,0 l/m² 2 min 479 W/m² 29,0 km/h (5 Bft) 97,87 %
19.04.2026 17:28 17,0 °C 20,0 °C 13,3 °C 54 % 1021,4 hPa 0,0 l/m² 2 min 371 W/m² 16,1 km/h (3 Bft) 95,24 %
19.04.2026 17:30 16,8 °C 17,2 °C 12,8 °C 53 % 1021,3 hPa 0,0 l/m² 0 min 81 W/m² 25,7 km/h (4 Bft) 97,87 %
19.04.2026 17:32 16,5 °C 17,8 °C 12,2 °C 55 % 1021,3 hPa 0,0 l/m² 0 min 84 W/m² 19,3 km/h (3 Bft) 97,87 %
19.04.2026 17:34 16,3 °C 18,3 °C 12,2 °C 55 % 1021,4 hPa 0,0 l/m² 0 min 84 W/m² 12,9 km/h (3 Bft) 93,88 %
19.04.2026 17:36 16,3 °C 17,2 °C 12,2 °C 55 % 1021,4 hPa 0,0 l/m² 0 min 94 W/m² 16,1 km/h (3 Bft) 98,00 %
19.04.2026 17:38 16,1 °C 16,7 °C 11,7 °C 55 % 1021,4 hPa 0,0 l/m² 0 min 139 W/m² 29,0 km/h (5 Bft) 97,87 %
19.04.2026 17:40 15,9 °C 17,2 °C 12,2 °C 56 % 1021,4 hPa 0,0 l/m² 0 min 145 W/m² 25,7 km/h (4 Bft) 97,87 %
19.04.2026 17:42 15,8 °C 16,7 °C 11,7 °C 56 % 1021,4 hPa 0,0 l/m² 0 min 84 W/m² 29,0 km/h (5 Bft) 97,87 %
19.04.2026 17:44 15,7 °C 15,6 °C 11,1 °C 57 % 1021,4 hPa 0,0 l/m² 0 min 69 W/m² 22,5 km/h (4 Bft) 97,87 %
19.04.2026 17:46 15,6 °C 15,6 °C 11,1 °C 56 % 1021,4 hPa 0,0 l/m² 0 min 84 W/m² 22,5 km/h (4 Bft) 95,74 %
19.04.2026 17:48 15,4 °C 16,7 °C 11,7 °C 57 % 1021,4 hPa 0,0 l/m² 2 min 237 W/m² 22,5 km/h (4 Bft) 95,74 %
19.04.2026 17:50 15,4 °C 17,2 °C 11,7 °C 57 % 1021,3 hPa 0,0 l/m² 2 min 385 W/m² 25,7 km/h (4 Bft) 97,87 %
19.04.2026 17:52 15,4 °C 17,2 °C 12,2 °C 57 % 1021,4 hPa 0,0 l/m² 2 min 333 W/m² 19,3 km/h (3 Bft) 97,83 %
19.04.2026 17:54 15,5 °C 17,8 °C 12,2 °C 57 % 1021,3 hPa 0,0 l/m² 2 min 217 W/m² 16,1 km/h (3 Bft) 97,87 %
19.04.2026 17:56 15,6 °C 18,9 °C 12,2 °C 58 % 1021,4 hPa 0,0 l/m² 0 min 162 W/m² 9,7 km/h (2 Bft) 100,00 %
19.04.2026 17:58 15,7 °C 19,4 °C 12,8 °C 58 % 1021,3 hPa 0,0 l/m² 2 min 348 W/m² 32,2 km/h (5 Bft) 97,87 %
19.04.2026 18:00 15,8 °C 20,6 °C 12,8 °C 57 % 1021,4 hPa 0,0 l/m² 2 min 425 W/m² 29,0 km/h (5 Bft) 100,00 %
19.04.2026 18:02 15,9 °C 19,4 °C 12,8 °C 55 % 1021,3 hPa 0,0 l/m² 2 min 420 W/m² 32,2 km/h (5 Bft) 97,87 %
19.04.2026 18:04 15,9 °C 19,4 °C 12,8 °C 55 % 1021,3 hPa 0,0 l/m² 2 min 260 W/m² 35,4 km/h (5 Bft) 100,00 %
19.04.2026 18:06 16,0 °C 20,6 °C 12,8 °C 55 % 1021,3 hPa 0,0 l/m² 2 min 393 W/m² 22,5 km/h (4 Bft) 100,00 %
19.04.2026 18:08 16,1 °C 20,6 °C 13,3 °C 54 % 1021,4 hPa 0,0 l/m² 2 min 380 W/m² 29,0 km/h (5 Bft) 97,83 %
19.04.2026 18:10 16,1 °C 20,0 °C 13,3 °C 54 % 1021,4 hPa 0,0 l/m² 2 min 368 W/m² 22,5 km/h (4 Bft) 100,00 %
19.04.2026 18:12 16,1 °C 20,6 °C 12,8 °C 54 % 1021,4 hPa 0,0 l/m² 2 min 382 W/m² 16,1 km/h (3 Bft) 97,87 %
19.04.2026 18:14 16,2 °C 18,9 °C 12,8 °C 54 % 1021,3 hPa 0,0 l/m² 2 min 251 W/m² 19,3 km/h (3 Bft) 97,87 %
19.04.2026 18:16 16,1 °C 17,8 °C 12,8 °C 54 % 1021,3 hPa 0,0 l/m² 0 min 70 W/m² 19,3 km/h (3 Bft) 97,87 %
19.04.2026 18:18 16,1 °C 16,7 °C 12,2 °C 54 % 1021,2 hPa 0,0 l/m² 0 min 90 W/m² 16,1 km/h (3 Bft) 97,87 %
19.04.2026 18:20 16,0 °C 18,9 °C 12,2 °C 55 % 1021,3 hPa 0,0 l/m² 2 min 265 W/m² 16,1 km/h (3 Bft) 96,00 %
19.04.2026 18:22 16,0 °C 20,0 °C 12,8 °C 55 % 1021,3 hPa 0,0 l/m² 2 min 360 W/m² 16,1 km/h (3 Bft) 95,74 %
19.04.2026 18:24 16,1 °C 20,6 °C 12,8 °C 54 % 1021,3 hPa 0,0 l/m² 2 min 373 W/m² 16,1 km/h (3 Bft) 97,14 %
19.04.2026 18:26 16,1 °C 20,6 °C 12,8 °C 54 % 1021,3 hPa 0,0 l/m² 2 min 382 W/m² 22,5 km/h (4 Bft) 97,37 %
19.04.2026 18:28 16,2 °C 21,1 °C 13,3 °C 55 % 1021,2 hPa 0,0 l/m² 2 min 378 W/m² 16,1 km/h (3 Bft) 98,36 %
19.04.2026 18:30 16,3 °C 21,1 °C 12,8 °C 56 % 1021,3 hPa 0,0 l/m² 2 min 364 W/m² 12,9 km/h (3 Bft) 96,23 %
19.04.2026 18:32 16,3 °C 20,6 °C 12,8 °C 56 % 1021,3 hPa 0,0 l/m² 2 min 346 W/m² 19,3 km/h (3 Bft) 97,37 %
19.04.2026 18:34 16,3 °C 20,6 °C 12,8 °C 56 % 1021,3 hPa 0,0 l/m² 2 min 333 W/m² 25,7 km/h (4 Bft) 97,87 %
19.04.2026 18:36 16,4 °C 19,4 °C 12,8 °C 56 % 1021,3 hPa 0,0 l/m² 2 min 334 W/m² 9,7 km/h (2 Bft) 97,87 %
19.04.2026 18:38 16,3 °C 17,8 °C 12,8 °C 56 % 1021,3 hPa 0,0 l/m² 2 min 181 W/m² 19,3 km/h (3 Bft) 98,00 %
19.04.2026 18:40 16,2 °C 16,7 °C 12,2 °C 56 % 1021,3 hPa 0,0 l/m² 0 min 134 W/m² 16,1 km/h (3 Bft) 95,74 %
19.04.2026 18:42 16,1 °C 16,1 °C 11,7 °C 56 % 1021,3 hPa 0,0 l/m² 0 min 103 W/m² 12,9 km/h (3 Bft) 95,65 %
19.04.2026 18:44 15,9 °C 15,6 °C 11,7 °C 57 % 1021,3 hPa 0,0 l/m² 2 min 212 W/m² 6,4 km/h (2 Bft) 93,62 %
19.04.2026 18:46 15,8 °C 15,6 °C 11,7 °C 58 % 1021,2 hPa 0,0 l/m² 0 min 130 W/m² 12,9 km/h (3 Bft) 93,62 %
19.04.2026 18:48 15,7 °C 15,0 °C 11,1 °C 59 % 1021,3 hPa 0,0 l/m² 0 min 85 W/m² 12,9 km/h (3 Bft) 95,74 %
19.04.2026 18:50 15,4 °C 15,0 °C 11,1 °C 60 % 1021,3 hPa 0,0 l/m² 0 min 99 W/m² 25,7 km/h (4 Bft) 93,62 %
19.04.2026 18:52 15,3 °C 15,0 °C 11,1 °C 61 % 1021,3 hPa 0,0 l/m² 0 min 91 W/m² 22,5 km/h (4 Bft) 93,62 %
19.04.2026 18:54 15,1 °C 15,0 °C 11,1 °C 61 % 1021,3 hPa 0,0 l/m² 0 min 75 W/m² 12,9 km/h (3 Bft) 93,62 %
19.04.2026 18:56 14,9 °C 14,4 °C 10,6 °C 62 % 1021,3 hPa 0,0 l/m² 0 min 48 W/m² 22,5 km/h (4 Bft) 95,92 %
19.04.2026 18:58 14,8 °C 14,4 °C 10,6 °C 62 % 1021,3 hPa 0,0 l/m² 0 min 39 W/m² 19,3 km/h (3 Bft) 96,00 %
19.04.2026 19:00 14,6 °C 13,9 °C 10,0 °C 62 % 1021,3 hPa 0,0 l/m² 0 min 39 W/m² 22,5 km/h (4 Bft) 95,74 %
19.04.2026 19:02 14,5 °C 13,9 °C 10,0 °C 63 % 1021,3 hPa 0,0 l/m² 0 min 39 W/m² 16,1 km/h (3 Bft) 97,87 %
19.04.2026 19:04 14,3 °C 13,9 °C 10,0 °C 63 % 1021,3 hPa 0,0 l/m² 0 min 40 W/m² 12,9 km/h (3 Bft) 95,74 %
19.04.2026 19:06 14,3 °C 13,9 °C 10,0 °C 63 % 1021,3 hPa 0,0 l/m² 0 min 40 W/m² 12,9 km/h (3 Bft) 97,37 %
19.04.2026 19:08 14,3 °C 13,9 °C 10,0 °C 64 % 1021,3 hPa 0,0 l/m² 0 min 39 W/m² 9,7 km/h (2 Bft) 97,87 %
19.04.2026 19:10 14,3 °C 13,9 °C 10,0 °C 65 % 1021,3 hPa 0,0 l/m² 0 min 37 W/m² 12,9 km/h (3 Bft) 95,74 %
19.04.2026 19:12 14,3 °C 13,9 °C 10,0 °C 65 % 1021,3 hPa 0,0 l/m² 0 min 37 W/m² 6,4 km/h (2 Bft) 98,00 %
19.04.2026 19:14 14,2 °C 13,9 °C 10,0 °C 65 % 1021,4 hPa 0,0 l/m² 0 min 37 W/m² 16,1 km/h (3 Bft) 97,83 %
19.04.2026 19:16 14,1 °C 13,3 °C 10,0 °C 65 % 1021,3 hPa 0,0 l/m² 0 min 36 W/m² 12,9 km/h (3 Bft) 97,87 %
19.04.2026 19:18 14,1 °C 13,3 °C 10,0 °C 65 % 1021,3 hPa 0,0 l/m² 0 min 35 W/m² 16,1 km/h (3 Bft) 97,87 %
19.04.2026 19:20 14,0 °C 13,3 °C 9,4 °C 64 % 1021,3 hPa 0,0 l/m² 0 min 34 W/m² 19,3 km/h (3 Bft) 97,87 %
19.04.2026 19:22 13,9 °C 13,3 °C 9,4 °C 64 % 1021,3 hPa 0,0 l/m² 0 min 33 W/m² 19,3 km/h (3 Bft) 98,00 %
19.04.2026 19:24 13,8 °C 13,3 °C 9,4 °C 63 % 1021,3 hPa 0,0 l/m² 0 min 33 W/m² 29,0 km/h (5 Bft) 97,37 %
19.04.2026 19:26 13,7 °C 12,8 °C 9,4 °C 63 % 1021,3 hPa 0,0 l/m² 0 min 32 W/m² 19,3 km/h (3 Bft) 93,75 %
19.04.2026 19:28 13,7 °C 12,8 °C 9,4 °C 63 % 1021,3 hPa 0,0 l/m² 0 min 32 W/m² 16,1 km/h (3 Bft) 95,59 %
19.04.2026 19:30 13,7 °C 12,8 °C 9,4 °C 64 % 1021,3 hPa 0,0 l/m² 0 min 30 W/m² 16,1 km/h (3 Bft) 97,96 %
19.04.2026 19:32 13,6 °C 12,8 °C 9,4 °C 64 % 1021,3 hPa 0,0 l/m² 0 min 30 W/m² 12,9 km/h (3 Bft) 97,87 %
19.04.2026 19:34 13,6 °C 12,8 °C 9,4 °C 64 % 1021,3 hPa 0,0 l/m² 0 min 29 W/m² 16,1 km/h (3 Bft) 97,62 %
19.04.2026 19:36 13,5 °C 12,8 °C 8,9 °C 65 % 1021,4 hPa 0,0 l/m² 0 min 28 W/m² 19,3 km/h (3 Bft) 97,87 %
19.04.2026 19:38 13,4 °C 12,8 °C 8,9 °C 65 % 1021,4 hPa 0,0 l/m² 0 min 26 W/m² 16,1 km/h (3 Bft) 98,00 %
19.04.2026 19:40 13,3 °C 12,8 °C 8,9 °C 65 % 1021,3 hPa 0,0 l/m² 0 min 26 W/m² 16,1 km/h (3 Bft) 98,00 %
19.04.2026 19:42 13,3 °C 12,2 °C 8,9 °C 65 % 1021,3 hPa 0,0 l/m² 0 min 23 W/m² 19,3 km/h (3 Bft) 97,87 %
19.04.2026 19:44 13,2 °C 12,2 °C 8,9 °C 66 % 1021,4 hPa 0,0 l/m² 0 min 21 W/m² 22,5 km/h (4 Bft) 95,74 %
19.04.2026 19:46 13,2 °C 12,2 °C 8,9 °C 66 % 1021,4 hPa 0,0 l/m² 0 min 21 W/m² 32,2 km/h (5 Bft) 95,65 %
19.04.2026 19:48 13,1 °C 12,2 °C 8,9 °C 66 % 1021,3 hPa 0,0 l/m² 0 min 19 W/m² 12,9 km/h (3 Bft) 97,87 %
19.04.2026 19:50 13,0 °C 12,2 °C 8,9 °C 65 % 1021,3 hPa 0,0 l/m² 0 min 19 W/m² 16,1 km/h (3 Bft) 97,87 %
19.04.2026 19:52 12,9 °C 12,2 °C 8,9 °C 66 % 1021,4 hPa 0,0 l/m² 0 min 19 W/m² 12,9 km/h (3 Bft) 97,87 %
19.04.2026 19:54 12,9 °C 12,2 °C 8,9 °C 66 % 1021,4 hPa 0,0 l/m² 0 min 19 W/m² 9,7 km/h (2 Bft) 97,56 %
19.04.2026 19:56 12,9 °C 11,7 °C 8,3 °C 66 % 1021,5 hPa 0,0 l/m² 0 min 20 W/m² 12,9 km/h (3 Bft) 100,00 %
19.04.2026 19:58 12,8 °C 11,7 °C 8,3 °C 66 % 1021,5 hPa 0,0 l/m² 0 min 19 W/m² 16,1 km/h (3 Bft) 100,00 %
19.04.2026 20:00 12,8 °C 11,7 °C 8,3 °C 67 % 1021,5 hPa 0,0 l/m² 0 min 18 W/m² 22,5 km/h (4 Bft) 100,00 %
19.04.2026 20:02 12,7 °C 11,7 °C 8,3 °C 67 % 1021,5 hPa 0,0 l/m² 0 min 17 W/m² 9,7 km/h (2 Bft) 100,00 %
19.04.2026 20:04 12,7 °C 11,7 °C 8,3 °C 67 % 1021,5 hPa 0,0 l/m² 0 min 18 W/m² 12,9 km/h (3 Bft) 100,00 %
19.04.2026 20:06 12,6 °C 11,7 °C 8,3 °C 67 % 1021,5 hPa 0,0 l/m² 0 min 16 W/m² 16,1 km/h (3 Bft) 100,00 %
19.04.2026 20:08 12,6 °C 11,7 °C 8,3 °C 67 % 1021,5 hPa 0,0 l/m² 0 min 14 W/m² 6,4 km/h (2 Bft) 97,87 %
19.04.2026 20:10 12,6 °C 11,7 °C 8,3 °C 68 % 1021,5 hPa 0,0 l/m² 0 min 12 W/m² 6,4 km/h (2 Bft) 95,74 %
19.04.2026 20:12 12,6 °C 11,7 °C 8,3 °C 68 % 1021,6 hPa 0,0 l/m² 0 min 12 W/m² 9,7 km/h (2 Bft) 100,00 %
19.04.2026 20:14 12,5 °C 11,7 °C 7,8 °C 69 % 1021,6 hPa 0,0 l/m² 0 min 11 W/m² 19,3 km/h (3 Bft) 100,00 %
19.04.2026 20:16 12,4 °C 11,1 °C 7,8 °C 69 % 1021,6 hPa 0,0 l/m² 0 min 11 W/m² 12,9 km/h (3 Bft) 100,00 %
19.04.2026 20:18 12,3 °C 11,1 °C 7,8 °C 70 % 1021,6 hPa 0,0 l/m² 0 min 10 W/m² 12,9 km/h (3 Bft) 100,00 %
19.04.2026 20:20 12,3 °C 11,1 °C 7,8 °C 70 % 1021,6 hPa 0,0 l/m² 0 min 9 W/m² 6,4 km/h (2 Bft) 100,00 %
19.04.2026 20:22 12,2 °C 11,1 °C 7,8 °C 71 % 1021,6 hPa 0,0 l/m² 0 min 7 W/m² 9,7 km/h (2 Bft) 100,00 %
19.04.2026 20:24 12,1 °C 11,1 °C 7,8 °C 71 % 1021,7 hPa 0,0 l/m² 0 min 7 W/m² 12,9 km/h (3 Bft) 100,00 %
19.04.2026 20:26 12,1 °C 11,1 °C 7,8 °C 71 % 1021,8 hPa 0,0 l/m² 0 min 7 W/m² 25,7 km/h (4 Bft) 95,74 %
19.04.2026 20:28 12,0 °C 11,1 °C 7,8 °C 72 % 1021,8 hPa 0,0 l/m² 0 min 5 W/m² 16,1 km/h (3 Bft) 100,00 %
19.04.2026 20:30 11,9 °C 10,6 °C 7,2 °C 72 % 1021,8 hPa 0,0 l/m² 0 min 5 W/m² 12,9 km/h (3 Bft) 100,00 %
19.04.2026 20:32 11,9 °C 10,6 °C 7,2 °C 72 % 1021,8 hPa 0,0 l/m² 0 min 5 W/m² 12,9 km/h (3 Bft) 97,87 %
19.04.2026 20:34 11,8 °C 10,6 °C 7,2 °C 72 % 1021,9 hPa 0,0 l/m² 0 min 2 W/m² 12,9 km/h (3 Bft) 95,65 %
19.04.2026 20:36 11,8 °C 10,6 °C 7,2 °C 72 % 1021,8 hPa 0,0 l/m² 0 min 0 W/m² 16,1 km/h (3 Bft) 100,00 %
19.04.2026 20:38 11,7 °C 10,6 °C 7,2 °C 73 % 1021,9 hPa 0,0 l/m² 0 min 0 W/m² 12,9 km/h (3 Bft) 98,00 %
19.04.2026 20:40 11,7 °C 10,6 °C 7,2 °C 73 % 1021,9 hPa 0,0 l/m² 0 min 0 W/m² 6,4 km/h (2 Bft) 100,00 %
19.04.2026 20:42 11,7 °C 10,6 °C 7,2 °C 73 % 1021,9 hPa 0,0 l/m² 0 min 0 W/m² 19,3 km/h (3 Bft) 100,00 %
19.04.2026 20:44 11,6 °C 10,6 °C 7,2 °C 73 % 1021,8 hPa 0,0 l/m² 0 min 0 W/m² 6,4 km/h (2 Bft) 97,62 %
19.04.2026 20:46 11,6 °C 10,6 °C 7,2 °C 73 % 1021,9 hPa 0,0 l/m² 0 min 0 W/m² 16,1 km/h (3 Bft) 97,87 %
19.04.2026 20:48 11,5 °C 10,0 °C 7,2 °C 73 % 1021,9 hPa 0,0 l/m² 0 min 0 W/m² 19,3 km/h (3 Bft) 97,87 %
19.04.2026 20:50 11,4 °C 10,0 °C 7,2 °C 74 % 1021,9 hPa 0,0 l/m² 0 min 0 W/m² 6,4 km/h (2 Bft) 97,87 %
19.04.2026 20:52 11,4 °C 10,0 °C 6,7 °C 74 % 1022,0 hPa 0,0 l/m² 0 min 0 W/m² 6,4 km/h (2 Bft) 97,92 %
19.04.2026 20:54 11,4 °C 10,0 °C 6,7 °C 74 % 1022,0 hPa 0,0 l/m² 0 min 0 W/m² 9,7 km/h (2 Bft) 98,00 %
19.04.2026 20:56 11,3 °C 10,0 °C 6,7 °C 74 % 1022,0 hPa 0,0 l/m² 0 min 0 W/m² 9,7 km/h (2 Bft) 94,74 %
19.04.2026 20:58 11,2 °C 10,0 °C 6,7 °C 74 % 1022,1 hPa 0,0 l/m² 0 min 0 W/m² 6,4 km/h (2 Bft) 97,87 %
19.04.2026 21:00 11,2 °C 10,0 °C 6,7 °C 75 % 1022,1 hPa 0,0 l/m² 0 min 0 W/m² 3,2 km/h (1 Bft) 95,74 %
19.04.2026 21:02 11,2 °C 10,0 °C 6,7 °C 75 % 1022,1 hPa 0,0 l/m² 0 min 0 W/m² 9,7 km/h (2 Bft) 95,74 %
19.04.2026 21:04 11,1 °C 10,0 °C 6,7 °C 75 % 1022,1 hPa 0,0 l/m² 0 min 0 W/m² 6,4 km/h (2 Bft) 95,74 %
19.04.2026 21:06 11,1 °C 10,0 °C 6,7 °C 75 % 1022,1 hPa 0,0 l/m² 0 min 0 W/m² 9,7 km/h (2 Bft) 98,28 %
19.04.2026 21:08 11,1 °C 10,0 °C 6,7 °C 75 % 1022,2 hPa 0,0 l/m² 0 min 0 W/m² 12,9 km/h (3 Bft) 97,22 %
19.04.2026 21:10 11,0 °C 10,0 °C 6,7 °C 75 % 1022,2 hPa 0,0 l/m² 0 min 0 W/m² 12,9 km/h (3 Bft) 100,00 %
19.04.2026 21:12 11,0 °C 10,0 °C 6,7 °C 75 % 1022,2 hPa 0,0 l/m² 0 min 0 W/m² 3,2 km/h (1 Bft) 97,87 %
19.04.2026 21:14 10,9 °C 10,0 °C 6,7 °C 75 % 1022,2 hPa 0,0 l/m² 0 min 0 W/m² 9,7 km/h (2 Bft) 98,00 %
19.04.2026 21:16 10,9 °C 10,0 °C 6,7 °C 75 % 1022,2 hPa 0,0 l/m² 0 min 0 W/m² 9,7 km/h (2 Bft) 97,87 %
19.04.2026 21:18 10,9 °C 10,0 °C 6,7 °C 75 % 1022,3 hPa 0,0 l/m² 0 min 0 W/m² 12,9 km/h (3 Bft) 95,74 %
19.04.2026 21:20 10,8 °C 9,4 °C 6,7 °C 76 % 1022,3 hPa 0,0 l/m² 0 min 0 W/m² 9,7 km/h (2 Bft) 97,87 %
19.04.2026 21:22 10,8 °C 9,4 °C 6,7 °C 76 % 1022,3 hPa 0,0 l/m² 0 min 0 W/m² 12,9 km/h (3 Bft) 97,87 %
19.04.2026 21:24 10,8 °C 9,4 °C 6,7 °C 76 % 1022,3 hPa 0,0 l/m² 0 min 0 W/m² 12,9 km/h (3 Bft) 97,96 %
19.04.2026 21:26 10,7 °C 9,4 °C 6,7 °C 76 % 1022,4 hPa 0,0 l/m² 0 min 0 W/m² 9,7 km/h (2 Bft) 97,87 %
19.04.2026 21:28 10,7 °C 9,4 °C 6,7 °C 76 % 1022,4 hPa 0,0 l/m² 0 min 0 W/m² 12,9 km/h (3 Bft) 97,87 %
19.04.2026 21:30 10,7 °C 9,4 °C 6,1 °C 76 % 1022,4 hPa 0,0 l/m² 0 min 0 W/m² 9,7 km/h (2 Bft) 97,87 %
19.04.2026 21:32 10,6 °C 9,4 °C 6,7 °C 76 % 1022,4 hPa 0,0 l/m² 0 min 0 W/m² 12,9 km/h (3 Bft) 98,00 %
19.04.2026 21:34 10,6 °C 9,4 °C 6,1 °C 76 % 1022,4 hPa 0,0 l/m² 0 min 0 W/m² 6,4 km/h (2 Bft) 97,37 %
19.04.2026 21:36 10,6 °C 9,4 °C 6,1 °C 76 % 1022,4 hPa 0,0 l/m² 0 min 0 W/m² 6,4 km/h (2 Bft) 97,87 %
19.04.2026 21:38 10,6 °C 9,4 °C 6,7 °C 76 % 1022,4 hPa 0,0 l/m² 0 min 0 W/m² 6,4 km/h (2 Bft) 97,87 %
19.04.2026 21:40 10,5 °C 9,4 °C 6,1 °C 76 % 1022,5 hPa 0,0 l/m² 0 min 0 W/m² 6,4 km/h (2 Bft) 100,00 %
19.04.2026 21:42 10,5 °C 9,4 °C 6,1 °C 76 % 1022,5 hPa 0,0 l/m² 0 min 0 W/m² 9,7 km/h (2 Bft) 97,87 %
19.04.2026 21:44 10,4 °C 9,4 °C 6,1 °C 76 % 1022,5 hPa 0,0 l/m² 0 min 0 W/m² 6,4 km/h (2 Bft) 95,74 %
19.04.2026 21:46 10,4 °C 9,4 °C 6,1 °C 76 % 1022,5 hPa 0,0 l/m² 0 min 0 W/m² 9,7 km/h (2 Bft) 97,87 %
19.04.2026 21:48 10,4 °C 9,4 °C 6,1 °C 76 % 1022,4 hPa 0,0 l/m² 0 min 0 W/m² 19,3 km/h (3 Bft) 97,87 %
19.04.2026 21:50 10,4 °C 9,4 °C 6,1 °C 76 % 1022,5 hPa 0,0 l/m² 0 min 0 W/m² 19,3 km/h (3 Bft) 98,00 %
19.04.2026 21:52 10,3 °C 9,4 °C 6,1 °C 77 % 1022,5 hPa 0,0 l/m² 0 min 0 W/m² 6,4 km/h (2 Bft) 97,14 %
19.04.2026 21:54 10,3 °C 9,4 °C 6,1 °C 77 % 1022,5 hPa 0,0 l/m² 0 min 0 W/m² 6,4 km/h (2 Bft) 98,00 %
19.04.2026 21:59 10,3 °C 9,4 °C 6,1 °C 77 % 1022,4 hPa 0,0 l/m² 0 min 0 W/m² 12,9 km/h (3 Bft) 98,36 %
19.04.2026 22:00 10,3 °C 9,4 °C 6,1 °C 77 % 1022,4 hPa 0,0 l/m² 0 min 0 W/m² 3,2 km/h (1 Bft) 100,00 %
19.04.2026 22:02 10,3 °C 9,4 °C 6,1 °C 77 % 1022,4 hPa 0,0 l/m² 0 min 0 W/m² 6,4 km/h (2 Bft) 95,74 %
19.04.2026 22:04 10,2 °C 9,4 °C 6,1 °C 77 % 1022,4 hPa 0,0 l/m² 0 min 0 W/m² 9,7 km/h (2 Bft) 97,87 %
19.04.2026 22:06 10,2 °C 8,9 °C 6,1 °C 77 % 1022,4 hPa 0,0 l/m² 0 min 0 W/m² 9,7 km/h (2 Bft) 97,87 %
19.04.2026 22:08 10,2 °C 8,9 °C 6,1 °C 78 % 1022,3 hPa 0,0 l/m² 0 min 0 W/m² 6,4 km/h (2 Bft) 98,00 %
19.04.2026 22:10 10,2 °C 8,9 °C 6,1 °C 78 % 1022,4 hPa 0,0 l/m² 0 min 0 W/m² 3,2 km/h (1 Bft) 97,37 %
19.04.2026 22:12 10,2 °C 8,9 °C 6,1 °C 78 % 1022,4 hPa 0,0 l/m² 0 min 0 W/m² 6,4 km/h (2 Bft) 97,87 %
19.04.2026 22:14 10,1 °C 8,9 °C 5,6 °C 78 % 1022,4 hPa 0,0 l/m² 0 min 0 W/m² 6,4 km/h (2 Bft) 97,87 %
19.04.2026 22:16 10,1 °C 8,9 °C 5,6 °C 78 % 1022,5 hPa 0,0 l/m² 0 min 0 W/m² 16,1 km/h (3 Bft) 93,88 %
19.04.2026 22:18 10,1 °C 8,9 °C 5,6 °C 78 % 1022,4 hPa 0,0 l/m² 0 min 0 W/m² 12,9 km/h (3 Bft) 97,87 %
19.04.2026 22:20 10,1 °C 8,9 °C 5,6 °C 78 % 1022,4 hPa 0,0 l/m² 0 min 0 W/m² 9,7 km/h (2 Bft) 93,62 %
19.04.2026 22:22 10,1 °C 8,9 °C 5,6 °C 78 % 1022,5 hPa 0,0 l/m² 0 min 0 W/m² 9,7 km/h (2 Bft) 98,00 %
19.04.2026 22:24 10,0 °C 8,9 °C 5,6 °C 78 % 1022,5 hPa 0,0 l/m² 0 min 0 W/m² 9,7 km/h (2 Bft) 95,74 %
19.04.2026 22:26 9,9 °C 8,9 °C 5,6 °C 78 % 1022,5 hPa 0,0 l/m² 0 min 0 W/m² 16,1 km/h (3 Bft) 98,00 %
19.04.2026 22:28 9,9 °C 8,9 °C 5,6 °C 79 % 1022,5 hPa 0,0 l/m² 0 min 0 W/m² 9,7 km/h (2 Bft) 97,83 %
19.04.2026 22:30 9,9 °C 8,9 °C 5,6 °C 79 % 1022,5 hPa 0,0 l/m² 0 min 0 W/m² 6,4 km/h (2 Bft) 97,87 %
19.04.2026 22:32 9,9 °C 8,9 °C 5,6 °C 79 % 1022,5 hPa 0,0 l/m² 0 min 0 W/m² 9,7 km/h (2 Bft) 97,87 %
19.04.2026 22:34 9,9 °C 8,9 °C 5,6 °C 79 % 1022,5 hPa 0,0 l/m² 0 min 0 W/m² 3,2 km/h (1 Bft) 95,74 %
19.04.2026 22:36 9,9 °C 8,9 °C 5,6 °C 79 % 1022,5 hPa 0,0 l/m² 0 min 0 W/m² 3,2 km/h (1 Bft) 97,37 %
19.04.2026 22:38 9,8 °C 8,9 °C 5,6 °C 79 % 1022,5 hPa 0,0 l/m² 0 min 0 W/m² 12,9 km/h (3 Bft) 97,87 %
19.04.2026 22:40 9,8 °C 8,9 °C 5,6 °C 79 % 1022,6 hPa 0,0 l/m² 0 min 0 W/m² 6,4 km/h (2 Bft) 92,86 %
19.04.2026 22:42 9,8 °C 8,9 °C 5,6 °C 79 % 1022,5 hPa 0,0 l/m² 0 min 0 W/m² 12,9 km/h (3 Bft) 100,00 %
19.04.2026 22:44 9,8 °C 8,9 °C 5,6 °C 79 % 1022,5 hPa 0,0 l/m² 0 min 0 W/m² 12,9 km/h (3 Bft) 95,74 %
19.04.2026 22:46 9,7 °C 8,3 °C 5,6 °C 79 % 1022,5 hPa 0,0 l/m² 0 min 0 W/m² 12,9 km/h (3 Bft) 97,83 %
19.04.2026 22:48 9,7 °C 8,3 °C 5,6 °C 80 % 1022,5 hPa 0,0 l/m² 0 min 0 W/m² 3,2 km/h (1 Bft) 95,74 %
19.04.2026 22:50 9,7 °C 8,3 °C 5,6 °C 80 % 1022,6 hPa 0,0 l/m² 0 min 0 W/m² 9,7 km/h (2 Bft) 97,87 %
19.04.2026 22:52 9,6 °C 8,3 °C 5,6 °C 80 % 1022,6 hPa 0,0 l/m² 0 min 0 W/m² 9,7 km/h (2 Bft) 95,74 %
19.04.2026 22:54 9,6 °C 8,3 °C 5,6 °C 80 % 1022,6 hPa 0,0 l/m² 0 min 0 W/m² 16,1 km/h (3 Bft) 95,74 %
19.04.2026 22:56 9,6 °C 8,3 °C 5,6 °C 80 % 1022,7 hPa 0,0 l/m² 0 min 0 W/m² 16,1 km/h (3 Bft) 95,74 %
19.04.2026 22:58 9,5 °C 8,3 °C 5,6 °C 80 % 1022,6 hPa 0,0 l/m² 0 min 0 W/m² 12,9 km/h (3 Bft) 95,74 %
19.04.2026 23:00 9,5 °C 8,3 °C 5,6 °C 80 % 1022,7 hPa 0,0 l/m² 0 min 0 W/m² 12,9 km/h (3 Bft) 93,88 %
19.04.2026 23:02 9,4 °C 8,3 °C 5,0 °C 80 % 1022,7 hPa 0,0 l/m² 0 min 0 W/m² 9,7 km/h (2 Bft) 92,00 %
19.04.2026 23:04 9,4 °C 8,3 °C 5,0 °C 81 % 1022,7 hPa 0,0 l/m² 0 min 0 W/m² 9,7 km/h (2 Bft) 95,74 %
19.04.2026 23:06 9,3 °C 8,3 °C 5,0 °C 81 % 1022,7 hPa 0,0 l/m² 0 min 0 W/m² 6,4 km/h (2 Bft) 96,00 %
19.04.2026 23:08 9,3 °C 8,3 °C 5,0 °C 81 % 1022,7 hPa 0,0 l/m² 0 min 0 W/m² 9,7 km/h (2 Bft) 94,29 %
19.04.2026 23:10 9,3 °C 8,3 °C 5,0 °C 81 % 1022,7 hPa 0,0 l/m² 0 min 0 W/m² 0,0 km/h (0 Bft) 95,74 %
19.04.2026 23:12 9,3 °C 8,3 °C 5,0 °C 81 % 1022,7 hPa 0,0 l/m² 0 min 0 W/m² 12,9 km/h (3 Bft) 95,74 %
19.04.2026 23:14 9,2 °C 8,3 °C 5,0 °C 81 % 1022,6 hPa 0,0 l/m² 0 min 0 W/m² 6,4 km/h (2 Bft) 93,62 %
19.04.2026 23:16 9,2 °C 7,8 °C 5,0 °C 81 % 1022,6 hPa 0,0 l/m² 0 min 0 W/m² 9,7 km/h (2 Bft) 97,87 %
19.04.2026 23:18 9,2 °C 7,8 °C 5,0 °C 81 % 1022,6 hPa 0,0 l/m² 0 min 0 W/m² 6,4 km/h (2 Bft) 96,00 %
19.04.2026 23:20 9,1 °C 7,8 °C 5,0 °C 81 % 1022,6 hPa 0,0 l/m² 0 min 0 W/m² 6,4 km/h (2 Bft) 97,83 %
19.04.2026 23:22 9,1 °C 7,8 °C 5,0 °C 82 % 1022,7 hPa 0,0 l/m² 0 min 0 W/m² 6,4 km/h (2 Bft) 95,74 %
19.04.2026 23:24 9,1 °C 7,8 °C 5,0 °C 82 % 1022,6 hPa 0,0 l/m² 0 min 0 W/m² 9,7 km/h (2 Bft) 100,00 %
19.04.2026 23:26 9,1 °C 7,8 °C 5,0 °C 82 % 1022,6 hPa 0,0 l/m² 0 min 0 W/m² 9,7 km/h (2 Bft) 100,00 %
19.04.2026 23:28 9,1 °C 7,8 °C 5,0 °C 82 % 1022,6 hPa 0,0 l/m² 0 min 0 W/m² 0,0 km/h (0 Bft) 100,00 %
19.04.2026 23:30 9,1 °C 7,8 °C 5,0 °C 82 % 1022,6 hPa 0,0 l/m² 0 min 0 W/m² 12,9 km/h (3 Bft) 100,00 %
19.04.2026 23:32 9,0 °C 7,8 °C 5,0 °C 82 % 1022,7 hPa 0,0 l/m² 0 min 0 W/m² 3,2 km/h (1 Bft) 100,00 %
19.04.2026 23:34 9,0 °C 7,8 °C 5,0 °C 82 % 1022,6 hPa 0,0 l/m² 0 min 0 W/m² 3,2 km/h (1 Bft) 100,00 %
19.04.2026 23:36 9,0 °C 7,8 °C 5,0 °C 82 % 1022,7 hPa 0,0 l/m² 0 min 0 W/m² 3,2 km/h (1 Bft) 100,00 %
19.04.2026 23:38 8,9 °C 7,8 °C 4,4 °C 82 % 1022,6 hPa 0,0 l/m² 0 min 0 W/m² 0,0 km/h (0 Bft) 100,00 %
19.04.2026 23:40 8,9 °C 7,8 °C 4,4 °C 83 % 1022,7 hPa 0,0 l/m² 0 min 0 W/m² 0,0 km/h (0 Bft) 100,00 %
19.04.2026 23:42 8,9 °C 7,8 °C 4,4 °C 83 % 1022,7 hPa 0,0 l/m² 0 min 0 W/m² 0,0 km/h (0 Bft) 100,00 %
19.04.2026 23:44 8,9 °C 7,8 °C 4,4 °C 83 % 1022,7 hPa 0,0 l/m² 0 min 0 W/m² 12,9 km/h (3 Bft) 100,00 %
19.04.2026 23:46 8,8 °C 7,8 °C 4,4 °C 83 % 1022,7 hPa 0,0 l/m² 0 min 0 W/m² 9,7 km/h (2 Bft) 100,00 %
19.04.2026 23:48 8,8 °C 7,8 °C 4,4 °C 83 % 1022,7 hPa 0,0 l/m² 0 min 0 W/m² 9,7 km/h (2 Bft) 100,00 %
19.04.2026 23:50 8,8 °C 7,8 °C 4,4 °C 83 % 1022,7 hPa 0,0 l/m² 0 min 0 W/m² 3,2 km/h (1 Bft) 100,00 %
19.04.2026 23:52 8,8 °C 7,8 °C 4,4 °C 83 % 1022,7 hPa 0,0 l/m² 0 min 0 W/m² 6,4 km/h (2 Bft) 100,00 %
19.04.2026 23:54 8,8 °C 7,2 °C 4,4 °C 83 % 1022,7 hPa 0,0 l/m² 0 min 0 W/m² 12,9 km/h (3 Bft) 100,00 %
19.04.2026 23:56 8,7 °C 7,2 °C 4,4 °C 83 % 1022,6 hPa 0,0 l/m² 0 min 0 W/m² 12,9 km/h (3 Bft) 100,00 %
19.04.2026 23:58 8,7 °C 7,2 °C 4,4 °C 83 % 1022,7 hPa 0,0 l/m² 0 min 0 W/m² 3,2 km/h (1 Bft) 100,00 %
_ Min-Zeit 06:44 05:54 05:48 17:30 02:40 - - - 23:10 03:40
Minimum _ 8,1 °C 7,2 °C 3,9 °C 53 % 1020,0 hPa - - - 0,0 km/h (0 Bft) 74,47 %
_ Max-Zeit 16:54 12:42 12:42 07:20 22:56 01:46 08:54 13:02 13:26 00:02
Maximum _ 17,5 °C 26,7 °C 19,4 °C 97 % 1022,7 hPa 0,5 l/m² 2 min 1042 W/m² 48,3 km/h
NW (6 Bft)
100,00 %
Durchschnitt _ 12,0 °C 13,1 °C 8,1 °C 80 % 1021,3 hPa #7,7 l/m² #6:30 h 326 W/m² 14,1 km/h (3 Bft) 97,56 %
© 2026 W. Hausmann